Time,TemperatureF,DewpointF,PressureIn,WindDirection,WindDirectionDegrees,WindSpeedMPH,WindSpeedGustMPH,Humidity,HourlyPrecipIn,Conditions,Clouds,dailyrainin,SoftwareType,DateUTC
2013-05-08 00:00:00,62.4,54.4,29.97,South,172,0.0,0.0,75,0.00,,---,0.00,VWS V14.00,2013-05-08 04:00:00,
2013-05-08 00:01:00,62.4,54.4,29.97,South,172,0.0,0.0,75,0.00,,---,0.00,VWS V14.00,2013-05-08 04:01:00,
2013-05-08 00:02:00,62.4,54.4,29.97,South,172,0.0,0.0,75,0.00,,---,0.00,VWS V14.00,2013-05-08 04:02:00,
2013-05-08 00:03:00,62.3,54.3,29.97,South,172,0.0,0.0,75,0.00,,---,0.00,VWS V14.00,2013-05-08 04:03:00,
2013-05-08 00:06:00,62.2,54.2,29.97,South,172,0.0,0.0,75,0.00,,---,0.00,VWS V14.00,2013-05-08 04:06:00,
2013-05-08 00:07:00,62.2,54.2,29.97,South,172,0.0,0.0,75,0.00,,---,0.00,VWS V14.00,2013-05-08 04:07:00,
2013-05-08 00:09:00,62.1,54.1,29.97,South,172,0.0,0.0,75,0.00,,---,0.00,VWS V14.00,2013-05-08 04:09:00,
2013-05-08 00:12:00,62.0,54.4,29.97,South,172,0.0,0.0,76,0.00,,---,0.00,VWS V14.00,2013-05-08 04:12:00,
2013-05-08 00:13:00,61.9,54.3,29.97,South,172,0.0,0.0,76,0.00,,---,0.00,VWS V14.00,2013-05-08 04:13:00,
2013-05-08 00:14:00,61.9,54.3,29.97,South,172,0.0,0.0,76,0.00,,---,0.00,VWS V14.00,2013-05-08 04:14:00,
2013-05-08 00:16:00,61.8,54.2,29.97,South,172,0.0,0.0,76,0.00,,---,0.00,VWS V14.00,2013-05-08 04:16:00,
2013-05-08 00:17:00,61.7,54.1,29.97,South,172,0.0,0.0,76,0.00,,---,0.00,VWS V14.00,2013-05-08 04:17:00,
2013-05-08 00:19:00,61.5,53.9,29.96,South,172,0.0,0.0,76,0.00,,---,0.00,VWS V14.00,2013-05-08 04:19:00,
2013-05-08 00:20:00,61.4,54.1,29.96,South,172,0.0,0.0,77,0.00,,---,0.00,VWS V14.00,2013-05-08 04:20:00,
2013-05-08 00:21:00,61.3,54.0,29.96,South,172,0.0,0.0,77,0.00,,---,0.00,VWS V14.00,2013-05-08 04:21:00,
2013-05-08 00:22:00,61.3,54.0,29.96,South,172,0.0,0.0,77,0.00,,---,0.00,VWS V14.00,2013-05-08 04:22:00,
2013-05-08 00:25:00,61.0,54.1,29.96,South,172,0.0,0.0,78,0.00,,---,0.00,VWS V14.00,2013-05-08 04:25:00,
2013-05-08 00:26:00,60.9,54.0,29.96,South,172,0.0,0.0,78,0.00,,---,0.00,VWS V14.00,2013-05-08 04:26:00,
2013-05-08 00:28:00,60.8,53.9,29.96,South,172,0.0,0.0,78,0.00,,---,0.00,VWS V14.00,2013-05-08 04:28:00,
2013-05-08 00:31:00,60.5,53.6,29.96,South,172,0.0,0.0,78,0.00,,---,0.00,VWS V14.00,2013-05-08 04:31:00,
2013-05-08 00:32:00,60.5,53.6,29.96,South,172,0.0,0.0,78,0.00,,---,0.00,VWS V14.00,2013-05-08 04:32:00,
2013-05-08 00:35:00,60.3,53.8,29.96,South,172,0.0,0.0,79,0.00,,---,0.00,VWS V14.00,2013-05-08 04:35:00,
2013-05-08 00:36:00,60.2,53.7,29.96,South,172,0.0,0.0,79,0.00,,---,0.00,VWS V14.00,2013-05-08 04:36:00,
2013-05-08 00:39:00,60.0,53.5,29.96,South,172,0.0,0.0,79,0.00,,---,0.00,VWS V14.00,2013-05-08 04:39:00,
2013-05-08 00:41:00,59.9,53.4,29.96,South,172,0.0,0.0,79,0.00,,---,0.00,VWS V14.00,2013-05-08 04:41:00,
2013-05-08 00:42:00,59.8,53.3,29.96,South,172,0.0,0.0,79,0.00,,---,0.00,VWS V14.00,2013-05-08 04:42:00,
2013-05-08 00:45:00,59.7,53.5,29.96,South,172,0.0,0.0,80,0.00,,---,0.00,VWS V14.00,2013-05-08 04:45:00,
2013-05-08 00:48:00,59.6,53.4,29.96,South,172,0.0,0.0,80,0.00,,---,0.00,VWS V14.00,2013-05-08 04:48:00,
2013-05-08 00:49:00,59.6,53.4,29.96,South,172,0.0,0.0,80,0.00,,---,0.00,VWS V14.00,2013-05-08 04:49:00,
2013-05-08 00:51:00,59.5,53.3,29.96,South,172,0.0,0.0,80,0.00,,---,0.00,VWS V14.00,2013-05-08 04:51:00,
2013-05-08 00:53:00,59.5,53.3,29.96,South,172,0.0,0.0,80,0.00,,---,0.00,VWS V14.00,2013-05-08 04:53:00,
2013-05-08 00:54:00,59.5,53.3,29.96,South,172,0.0,0.0,80,0.00,,---,0.00,VWS V14.00,2013-05-08 04:54:00,
2013-05-08 00:56:00,59.4,53.2,29.96,South,172,0.0,0.0,80,0.00,,---,0.00,VWS V14.00,2013-05-08 04:56:00,
2013-05-08 00:58:00,59.2,53.0,29.96,South,172,0.0,0.0,80,0.00,,---,0.00,VWS V14.00,2013-05-08 04:58:00,
2013-05-08 00:59:00,59.2,53.0,29.96,South,172,0.0,0.0,80,0.00,,---,0.00,VWS V14.00,2013-05-08 04:59:00,
2013-05-08 01:00:00,59.1,52.9,29.96,South,172,0.0,0.0,80,0.00,,---,0.00,VWS V14.00,2013-05-08 05:00:00,
2013-05-08 01:01:00,59.0,52.8,29.96,South,172,0.0,0.0,80,0.00,,---,0.00,VWS V14.00,2013-05-08 05:01:00,
2013-05-08 01:03:00,59.0,52.8,29.96,South,172,0.0,0.0,80,0.00,,---,0.00,VWS V14.00,2013-05-08 05:03:00,
2013-05-08 01:05:00,59.0,53.2,29.96,South,172,0.0,0.0,81,0.00,,---,0.00,VWS V14.00,2013-05-08 05:05:00,
2013-05-08 01:06:00,59.0,53.2,29.96,South,172,0.0,0.0,81,0.00,,---,0.00,VWS V14.00,2013-05-08 05:06:00,
2013-05-08 01:07:00,59.0,53.2,29.96,South,172,0.0,0.0,81,0.00,,---,0.00,VWS V14.00,2013-05-08 05:07:00,
2013-05-08 01:10:00,58.9,53.1,29.96,South,172,0.0,0.0,81,0.00,,---,0.00,VWS V14.00,2013-05-08 05:10:00,
2013-05-08 01:11:00,58.9,53.1,29.96,South,172,0.0,0.0,81,0.00,,---,0.00,VWS V14.00,2013-05-08 05:11:00,
2013-05-08 01:13:00,58.7,52.9,29.96,South,172,0.0,0.0,81,0.00,,---,0.00,VWS V14.00,2013-05-08 05:13:00,
2013-05-08 01:15:00,58.7,52.9,29.96,South,172,0.0,0.0,81,0.00,,---,0.00,VWS V14.00,2013-05-08 05:15:00,
2013-05-08 01:16:00,58.6,52.8,29.96,South,172,0.0,0.0,81,0.00,,---,0.00,VWS V14.00,2013-05-08 05:16:00,
2013-05-08 01:19:00,58.5,52.7,29.96,South,172,0.0,0.0,81,0.00,,---,0.00,VWS V14.00,2013-05-08 05:19:00,
2013-05-08 01:20:00,58.5,53.0,29.96,South,172,0.0,0.0,82,0.00,,---,0.00,VWS V14.00,2013-05-08 05:20:00,
2013-05-08 01:21:00,58.4,52.9,29.96,South,172,0.0,0.0,82,0.00,,---,0.00,VWS V14.00,2013-05-08 05:21:00,
2013-05-08 01:25:00,58.3,52.8,29.96,South,172,0.0,0.0,82,0.00,,---,0.00,VWS V14.00,2013-05-08 05:25:00,
2013-05-08 01:26:00,58.3,52.8,29.96,South,172,0.0,0.0,82,0.00,,---,0.00,VWS V14.00,2013-05-08 05:26:00,
2013-05-08 01:27:00,58.2,52.7,29.96,South,172,0.0,0.0,82,0.00,,---,0.00,VWS V14.00,2013-05-08 05:27:00,
2013-05-08 01:30:00,58.2,52.7,29.96,South,172,0.0,0.0,82,0.00,,---,0.00,VWS V14.00,2013-05-08 05:30:00,
2013-05-08 01:31:00,58.1,52.6,29.96,South,172,0.0,0.0,82,0.00,,---,0.00,VWS V14.00,2013-05-08 05:31:00,
2013-05-08 01:32:00,58.1,52.6,29.96,South,172,0.0,0.0,82,0.00,,---,0.00,VWS V14.00,2013-05-08 05:32:00,
2013-05-08 01:33:00,58.1,52.6,29.96,South,172,0.0,0.0,82,0.00,,---,0.00,VWS V14.00,2013-05-08 05:33:00,
2013-05-08 01:36:00,58.1,52.6,29.96,South,172,0.0,0.0,82,0.00,,---,0.00,VWS V14.00,2013-05-08 05:36:00,
2013-05-08 01:38:00,58.1,52.6,29.96,South,172,0.0,0.0,82,0.00,,---,0.00,VWS V14.00,2013-05-08 05:38:00,
2013-05-08 01:39:00,58.1,52.6,29.96,South,172,0.0,0.0,82,0.00,,---,0.00,VWS V14.00,2013-05-08 05:39:00,
2013-05-08 01:41:00,58.1,52.6,29.96,South,172,0.0,0.0,82,0.00,,---,0.00,VWS V14.00,2013-05-08 05:41:00,
2013-05-08 01:43:00,58.1,52.6,29.96,South,172,0.0,0.0,82,0.00,,---,0.00,VWS V14.00,2013-05-08 05:43:00,
2013-05-08 01:44:00,58.1,52.6,29.96,South,172,0.0,0.0,82,0.00,,---,0.00,VWS V14.00,2013-05-08 05:44:00,
2013-05-08 01:46:00,58.1,52.6,29.96,South,172,0.0,0.0,82,0.00,,---,0.00,VWS V14.00,2013-05-08 05:46:00,
2013-05-08 01:48:00,58.0,52.5,29.96,South,172,0.0,0.0,82,0.00,,---,0.00,VWS V14.00,2013-05-08 05:48:00,
2013-05-08 01:49:00,58.0,52.5,29.96,South,172,0.0,0.0,82,0.00,,---,0.00,VWS V14.00,2013-05-08 05:49:00,
2013-05-08 01:52:00,57.9,52.5,29.96,South,172,0.0,0.0,82,0.00,,---,0.00,VWS V14.00,2013-05-08 05:52:00,
2013-05-08 01:53:00,57.8,52.3,29.96,South,172,0.0,0.0,82,0.00,,---,0.00,VWS V14.00,2013-05-08 05:53:00,
2013-05-08 01:54:00,57.8,52.3,29.96,South,172,0.0,0.0,82,0.00,,---,0.00,VWS V14.00,2013-05-08 05:54:00,
2013-05-08 01:57:00,57.7,52.6,29.96,South,172,0.0,0.0,83,0.00,,---,0.00,VWS V14.00,2013-05-08 05:57:00,
2013-05-08 01:58:00,57.7,52.6,29.96,South,172,0.0,0.0,83,0.00,,---,0.00,VWS V14.00,2013-05-08 05:58:00,
2013-05-08 02:01:00,57.6,52.5,29.96,South,172,0.0,0.0,83,0.00,,---,0.00,VWS V14.00,2013-05-08 06:01:00,
2013-05-08 02:02:00,57.6,52.5,29.96,South,172,0.0,0.0,83,0.00,,---,0.00,VWS V14.00,2013-05-08 06:02:00,
2013-05-08 02:03:00,57.6,52.5,29.96,South,172,0.0,0.0,83,0.00,,---,0.00,VWS V14.00,2013-05-08 06:03:00,
2013-05-08 02:04:00,57.6,52.5,29.96,South,172,0.0,0.0,83,0.00,,---,0.00,VWS V14.00,2013-05-08 06:04:00,
2013-05-08 02:08:00,57.4,52.3,29.96,South,172,0.0,0.0,83,0.00,,---,0.00,VWS V14.00,2013-05-08 06:08:00,
2013-05-08 02:09:00,57.3,52.2,29.96,South,172,0.0,0.0,83,0.00,,---,0.00,VWS V14.00,2013-05-08 06:09:00,
2013-05-08 02:10:00,57.3,52.2,29.96,South,172,0.0,0.0,83,0.00,,---,0.00,VWS V14.00,2013-05-08 06:10:00,
2013-05-08 02:12:00,57.2,52.1,29.96,South,172,0.0,0.0,83,0.00,,---,0.00,VWS V14.00,2013-05-08 06:12:00,
2013-05-08 02:15:00,57.0,51.9,29.96,South,172,0.0,0.0,83,0.00,,---,0.00,VWS V14.00,2013-05-08 06:15:00,
2013-05-08 02:16:00,57.0,52.2,29.96,South,172,0.0,0.0,84,0.00,,---,0.00,VWS V14.00,2013-05-08 06:16:00,
2013-05-08 02:17:00,56.9,52.1,29.96,South,172,0.0,0.0,84,0.00,,---,0.00,VWS V14.00,2013-05-08 06:17:00,
2013-05-08 02:18:00,56.9,52.1,29.96,South,172,0.0,0.0,84,0.00,,---,0.00,VWS V14.00,2013-05-08 06:18:00,
2013-05-08 02:20:00,56.8,52.0,29.96,South,172,0.0,0.0,84,0.00,,---,0.00,VWS V14.00,2013-05-08 06:20:00,
2013-05-08 02:21:00,56.7,51.9,29.96,South,172,0.0,0.0,84,0.00,,---,0.00,VWS V14.00,2013-05-08 06:21:00,
2013-05-08 02:22:00,56.7,51.9,29.96,South,172,0.0,0.0,84,0.00,,---,0.00,VWS V14.00,2013-05-08 06:22:00,
2013-05-08 02:23:00,56.6,51.8,29.96,South,172,0.0,0.0,84,0.00,,---,0.00,VWS V14.00,2013-05-08 06:23:00,
2013-05-08 02:25:00,56.6,51.8,29.96,South,172,0.0,0.0,84,0.00,,---,0.00,VWS V14.00,2013-05-08 06:25:00,
2013-05-08 02:27:00,56.4,51.6,29.96,South,172,0.0,0.0,84,0.00,,---,0.00,VWS V14.00,2013-05-08 06:27:00,
2013-05-08 02:28:00,56.4,51.6,29.96,South,172,0.0,0.0,84,0.00,,---,0.00,VWS V14.00,2013-05-08 06:28:00,
2013-05-08 02:29:00,56.4,51.6,29.96,South,172,0.0,0.0,84,0.00,,---,0.00,VWS V14.00,2013-05-08 06:29:00,
2013-05-08 02:30:00,56.3,51.5,29.96,South,172,0.0,0.0,84,0.00,,---,0.00,VWS V14.00,2013-05-08 06:30:00,
2013-05-08 02:32:00,56.2,51.4,29.96,South,172,0.0,0.0,84,0.00,,---,0.00,VWS V14.00,2013-05-08 06:32:00,
2013-05-08 02:33:00,56.1,51.3,29.96,South,172,0.0,0.0,84,0.00,,---,0.00,VWS V14.00,2013-05-08 06:33:00,
2013-05-08 02:35:00,56.0,51.2,29.96,South,172,0.0,0.0,84,0.00,,---,0.00,VWS V14.00,2013-05-08 06:35:00,
2013-05-08 02:36:00,56.0,51.2,29.96,South,172,0.0,0.0,84,0.00,,---,0.00,VWS V14.00,2013-05-08 06:36:00,
2013-05-08 02:37:00,56.0,51.2,29.96,South,172,0.0,0.0,84,0.00,,---,0.00,VWS V14.00,2013-05-08 06:37:00,
2013-05-08 02:38:00,56.0,51.2,29.96,South,172,0.0,0.0,84,0.00,,---,0.00,VWS V14.00,2013-05-08 06:38:00,
2013-05-08 02:41:00,55.9,51.5,29.95,South,172,0.0,0.0,85,0.00,,---,0.00,VWS V14.00,2013-05-08 06:41:00,
2013-05-08 02:42:00,55.9,51.5,29.96,South,172,0.0,0.0,85,0.00,,---,0.00,VWS V14.00,2013-05-08 06:42:00,
2013-05-08 02:45:00,55.8,51.4,29.96,South,172,0.0,0.0,85,0.00,,---,0.00,VWS V14.00,2013-05-08 06:45:00,
2013-05-08 02:46:00,55.8,51.4,29.95,South,172,0.0,0.0,85,0.00,,---,0.00,VWS V14.00,2013-05-08 06:46:00,
2013-05-08 02:47:00,55.8,51.4,29.96,South,172,0.0,0.0,85,0.00,,---,0.00,VWS V14.00,2013-05-08 06:47:00,
2013-05-08 02:49:00,55.7,51.3,29.95,South,172,0.0,0.0,85,0.00,,---,0.00,VWS V14.00,2013-05-08 06:49:00,
2013-05-08 02:50:00,55.7,51.3,29.95,South,172,0.0,0.0,85,0.00,,---,0.00,VWS V14.00,2013-05-08 06:50:00,
2013-05-08 02:52:00,55.6,51.2,29.96,South,172,0.0,0.0,85,0.00,,---,0.00,VWS V14.00,2013-05-08 06:52:00,
2013-05-08 02:53:00,55.6,51.2,29.95,South,172,0.0,0.0,85,0.00,,---,0.00,VWS V14.00,2013-05-08 06:53:00,
2013-05-08 02:54:00,55.5,51.1,29.95,South,172,0.0,0.0,85,0.00,,---,0.00,VWS V14.00,2013-05-08 06:54:00,
2013-05-08 02:55:00,55.5,51.1,29.95,South,172,0.0,0.0,85,0.00,,---,0.00,VWS V14.00,2013-05-08 06:55:00,
2013-05-08 02:57:00,55.4,51.0,29.95,South,172,0.0,0.0,85,0.00,,---,0.00,VWS V14.00,2013-05-08 06:57:00,
2013-05-08 02:58:00,55.4,51.0,29.95,South,172,0.0,0.0,85,0.00,,---,0.00,VWS V14.00,2013-05-08 06:58:00,
2013-05-08 02:59:00,55.3,50.9,29.95,South,172,0.0,0.0,85,0.00,,---,0.00,VWS V14.00,2013-05-08 06:59:00,
2013-05-08 03:01:00,55.3,50.9,29.95,South,172,0.0,0.0,85,0.00,,---,0.00,VWS V14.00,2013-05-08 07:01:00,
2013-05-08 03:02:00,55.2,51.1,29.95,South,172,0.0,0.0,86,0.00,,---,0.00,VWS V14.00,2013-05-08 07:02:00,
2013-05-08 03:04:00,55.2,51.1,29.95,South,172,0.0,0.0,86,0.00,,---,0.00,VWS V14.00,2013-05-08 07:04:00,
2013-05-08 03:05:00,55.2,51.1,29.95,South,172,0.0,0.0,86,0.00,,---,0.00,VWS V14.00,2013-05-08 07:05:00,
2013-05-08 03:06:00,55.3,51.2,29.95,South,172,0.0,0.0,86,0.00,,---,0.00,VWS V14.00,2013-05-08 07:06:00,
2013-05-08 03:07:00,55.2,51.1,29.95,South,172,0.0,0.0,86,0.00,,---,0.00,VWS V14.00,2013-05-08 07:07:00,
2013-05-08 03:10:00,55.2,51.1,29.95,South,172,0.0,0.0,86,0.00,,---,0.00,VWS V14.00,2013-05-08 07:10:00,
2013-05-08 03:12:00,55.2,51.1,29.95,South,172,0.0,0.0,86,0.00,,---,0.00,VWS V14.00,2013-05-08 07:12:00,
2013-05-08 03:13:00,55.2,51.1,29.95,South,172,0.0,0.0,86,0.00,,---,0.00,VWS V14.00,2013-05-08 07:13:00,
2013-05-08 03:14:00,55.2,51.1,29.95,South,172,0.0,0.0,86,0.00,,---,0.00,VWS V14.00,2013-05-08 07:14:00,
2013-05-08 03:16:00,55.1,51.0,29.95,South,172,0.0,0.0,86,0.00,,---,0.00,VWS V14.00,2013-05-08 07:16:00,
2013-05-08 03:17:00,55.1,51.0,29.95,South,172,0.0,0.0,86,0.00,,---,0.00,VWS V14.00,2013-05-08 07:17:00,
2013-05-08 03:18:00,55.1,51.0,29.95,South,172,0.0,0.0,86,0.00,,---,0.00,VWS V14.00,2013-05-08 07:18:00,
2013-05-08 03:20:00,55.1,51.0,29.95,South,172,0.0,0.0,86,0.00,,---,0.00,VWS V14.00,2013-05-08 07:20:00,
2013-05-08 03:23:00,55.1,51.3,29.95,South,172,0.0,0.0,87,0.00,,---,0.00,VWS V14.00,2013-05-08 07:23:00,
2013-05-08 03:24:00,55.1,51.3,29.95,South,172,0.0,0.0,87,0.00,,---,0.00,VWS V14.00,2013-05-08 07:24:00,
2013-05-08 03:25:00,55.1,51.3,29.95,South,172,0.0,0.0,87,0.00,,---,0.00,VWS V14.00,2013-05-08 07:25:00,
2013-05-08 03:26:00,55.1,51.3,29.95,South,172,0.0,0.0,87,0.00,,---,0.00,VWS V14.00,2013-05-08 07:26:00,
2013-05-08 03:28:00,55.1,51.3,29.95,South,172,0.0,0.0,87,0.00,,---,0.00,VWS V14.00,2013-05-08 07:28:00,
2013-05-08 03:29:00,55.1,51.3,29.95,South,172,0.0,0.0,87,0.00,,---,0.00,VWS V14.00,2013-05-08 07:29:00,
2013-05-08 03:31:00,55.0,51.2,29.95,South,172,0.0,0.0,87,0.00,,---,0.00,VWS V14.00,2013-05-08 07:31:00,
2013-05-08 03:34:00,54.9,51.1,29.95,South,172,0.0,0.0,87,0.00,,---,0.00,VWS V14.00,2013-05-08 07:34:00,
2013-05-08 03:35:00,54.9,51.1,29.95,South,172,0.0,0.0,87,0.00,,---,0.00,VWS V14.00,2013-05-08 07:35:00,
2013-05-08 03:36:00,54.8,51.0,29.95,South,172,0.0,0.0,87,0.00,,---,0.00,VWS V14.00,2013-05-08 07:36:00,
2013-05-08 03:38:00,54.8,51.0,29.95,South,172,0.0,0.0,87,0.00,,---,0.00,VWS V14.00,2013-05-08 07:38:00,
2013-05-08 03:40:00,54.7,50.9,29.95,South,172,0.0,0.0,87,0.00,,---,0.00,VWS V14.00,2013-05-08 07:40:00,
2013-05-08 03:41:00,54.7,50.9,29.95,South,172,0.0,0.0,87,0.00,,---,0.00,VWS V14.00,2013-05-08 07:41:00,
2013-05-08 03:42:00,54.7,50.9,29.95,South,172,0.0,0.0,87,0.00,,---,0.00,VWS V14.00,2013-05-08 07:42:00,
2013-05-08 03:45:00,54.6,50.8,29.95,South,172,0.0,0.0,87,0.00,,---,0.00,VWS V14.00,2013-05-08 07:45:00,
2013-05-08 03:46:00,54.6,50.8,29.95,South,172,0.0,0.0,87,0.00,,---,0.00,VWS V14.00,2013-05-08 07:46:00,
2013-05-08 03:47:00,54.5,50.7,29.95,South,172,0.0,0.0,87,0.00,,---,0.00,VWS V14.00,2013-05-08 07:47:00,
2013-05-08 03:48:00,54.5,50.7,29.95,South,172,0.0,0.0,87,0.00,,---,0.00,VWS V14.00,2013-05-08 07:48:00,
2013-05-08 03:51:00,54.4,50.9,29.95,South,172,0.0,0.0,88,0.00,,---,0.00,VWS V14.00,2013-05-08 07:51:00,
2013-05-08 03:52:00,54.4,50.9,29.95,South,172,0.0,0.0,88,0.00,,---,0.00,VWS V14.00,2013-05-08 07:52:00,
2013-05-08 03:53:00,54.3,50.8,29.95,South,172,0.0,0.0,88,0.00,,---,0.00,VWS V14.00,2013-05-08 07:53:00,
2013-05-08 03:55:00,54.3,50.8,29.95,South,172,0.0,0.0,88,0.00,,---,0.00,VWS V14.00,2013-05-08 07:55:00,
2013-05-08 03:56:00,54.2,50.7,29.95,South,172,0.0,0.0,88,0.00,,---,0.00,VWS V14.00,2013-05-08 07:56:00,
2013-05-08 03:57:00,54.3,50.8,29.95,South,172,0.0,0.0,88,0.00,,---,0.00,VWS V14.00,2013-05-08 07:57:00,
2013-05-08 03:58:00,54.2,50.7,29.95,South,172,0.0,0.0,88,0.00,,---,0.00,VWS V14.00,2013-05-08 07:58:00,
2013-05-08 04:01:00,54.1,50.6,29.95,South,172,0.0,0.0,88,0.00,,---,0.00,VWS V14.00,2013-05-08 08:01:00,
2013-05-08 04:03:00,54.1,50.6,29.95,South,172,0.0,0.0,88,0.00,,---,0.00,VWS V14.00,2013-05-08 08:03:00,
2013-05-08 04:04:00,54.1,50.6,29.96,South,172,0.0,0.0,88,0.00,,---,0.00,VWS V14.00,2013-05-08 08:04:00,
2013-05-08 04:05:00,54.1,50.6,29.96,South,172,0.0,0.0,88,0.00,,---,0.00,VWS V14.00,2013-05-08 08:05:00,
2013-05-08 04:06:00,54.1,50.6,29.95,South,172,0.0,0.0,88,0.00,,---,0.00,VWS V14.00,2013-05-08 08:06:00,
2013-05-08 04:08:00,54.2,51.0,29.95,South,172,0.0,0.0,89,0.00,,---,0.00,VWS V14.00,2013-05-08 08:08:00,
2013-05-08 04:09:00,54.2,51.0,29.96,South,172,0.0,0.0,89,0.00,,---,0.00,VWS V14.00,2013-05-08 08:09:00,
2013-05-08 04:10:00,54.2,51.0,29.96,South,172,0.0,0.0,89,0.00,,---,0.00,VWS V14.00,2013-05-08 08:10:00,
2013-05-08 04:11:00,54.2,51.0,29.96,South,172,0.0,0.0,89,0.00,,---,0.00,VWS V14.00,2013-05-08 08:11:00,
2013-05-08 04:14:00,54.3,51.1,29.96,South,172,0.0,0.0,89,0.00,,---,0.00,VWS V14.00,2013-05-08 08:14:00,
2013-05-08 04:16:00,54.4,51.2,29.96,South,172,0.0,0.0,89,0.00,,---,0.00,VWS V14.00,2013-05-08 08:16:00,
2013-05-08 04:17:00,54.4,51.2,29.96,South,172,0.0,0.0,89,0.00,,---,0.00,VWS V14.00,2013-05-08 08:17:00,
2013-05-08 04:19:00,54.3,51.1,29.95,South,172,0.0,0.0,89,0.00,,---,0.00,VWS V14.00,2013-05-08 08:19:00,
2013-05-08 04:21:00,54.2,51.0,29.96,South,172,0.0,0.0,89,0.00,,---,0.00,VWS V14.00,2013-05-08 08:21:00,
2013-05-08 04:23:00,54.2,51.0,29.96,South,172,0.0,0.0,89,0.00,,---,0.00,VWS V14.00,2013-05-08 08:23:00,
2013-05-08 04:24:00,54.2,51.0,29.96,South,172,0.0,0.0,89,0.00,,---,0.00,VWS V14.00,2013-05-08 08:24:00,
2013-05-08 04:25:00,54.1,50.9,29.96,South,172,0.0,0.0,89,0.00,,---,0.00,VWS V14.00,2013-05-08 08:25:00,
2013-05-08 04:27:00,54.1,50.9,29.96,South,172,0.0,0.0,89,0.00,,---,0.00,VWS V14.00,2013-05-08 08:27:00,
2013-05-08 04:28:00,54.1,50.9,29.95,South,172,0.0,0.0,89,0.00,,---,0.00,VWS V14.00,2013-05-08 08:28:00,
2013-05-08 04:29:00,54.1,50.9,29.95,South,172,0.0,0.0,89,0.00,,---,0.00,VWS V14.00,2013-05-08 08:29:00,
2013-05-08 04:30:00,54.1,50.9,29.96,South,172,0.0,0.0,89,0.00,,---,0.00,VWS V14.00,2013-05-08 08:30:00,
2013-05-08 04:33:00,54.1,51.2,29.96,South,172,0.0,0.0,90,0.00,,---,0.00,VWS V14.00,2013-05-08 08:33:00,
2013-05-08 04:34:00,54.1,51.2,29.96,South,172,0.0,0.0,90,0.00,,---,0.00,VWS V14.00,2013-05-08 08:34:00,
2013-05-08 04:35:00,54.1,51.2,29.96,South,172,0.0,0.0,90,0.00,,---,0.00,VWS V14.00,2013-05-08 08:35:00,
2013-05-08 04:37:00,54.0,50.8,29.96,South,172,0.0,0.0,89,0.00,,---,0.00,VWS V14.00,2013-05-08 08:37:00,
2013-05-08 04:38:00,53.9,50.7,29.96,South,172,0.0,0.0,89,0.00,,---,0.00,VWS V14.00,2013-05-08 08:38:00,
2013-05-08 04:40:00,53.8,50.6,29.96,South,172,0.0,0.0,89,0.00,,---,0.00,VWS V14.00,2013-05-08 08:40:00,
2013-05-08 04:41:00,53.8,50.6,29.96,South,172,0.0,0.0,89,0.00,,---,0.00,VWS V14.00,2013-05-08 08:41:00,
2013-05-08 04:42:00,53.8,50.6,29.96,South,172,0.0,0.0,89,0.00,,---,0.00,VWS V14.00,2013-05-08 08:42:00,
2013-05-08 04:44:00,53.8,50.9,29.96,South,172,0.0,0.0,90,0.00,,---,0.00,VWS V14.00,2013-05-08 08:44:00,
2013-05-08 04:46:00,53.7,50.8,29.96,South,172,0.0,0.0,90,0.00,,---,0.00,VWS V14.00,2013-05-08 08:46:00,
2013-05-08 04:47:00,53.7,50.8,29.96,South,172,0.0,0.0,90,0.00,,---,0.00,VWS V14.00,2013-05-08 08:47:00,
2013-05-08 04:48:00,53.7,50.8,29.96,South,172,0.0,0.0,90,0.00,,---,0.00,VWS V14.00,2013-05-08 08:48:00,
2013-05-08 04:49:00,53.7,50.8,29.96,South,172,0.0,0.0,90,0.00,,---,0.00,VWS V14.00,2013-05-08 08:49:00,
2013-05-08 04:53:00,53.5,50.6,29.96,South,172,0.0,0.0,90,0.00,,---,0.00,VWS V14.00,2013-05-08 08:53:00,
2013-05-08 04:54:00,53.5,50.6,29.96,South,172,0.0,0.0,90,0.00,,---,0.00,VWS V14.00,2013-05-08 08:54:00,
2013-05-08 04:55:00,53.5,50.6,29.96,South,172,0.0,0.0,90,0.00,,---,0.00,VWS V14.00,2013-05-08 08:55:00,
2013-05-08 04:56:00,53.5,50.6,29.96,South,172,0.0,0.0,90,0.00,,---,0.00,VWS V14.00,2013-05-08 08:56:00,
2013-05-08 04:58:00,53.5,50.6,29.95,South,172,0.0,0.0,90,0.00,,---,0.00,VWS V14.00,2013-05-08 08:58:00,
2013-05-08 05:00:00,53.5,50.6,29.95,South,172,0.0,0.0,90,0.00,,---,0.00,VWS V14.00,2013-05-08 09:00:00,
2013-05-08 05:01:00,53.5,50.6,29.95,South,172,0.0,0.0,90,0.00,,---,0.00,VWS V14.00,2013-05-08 09:01:00,
2013-05-08 05:02:00,53.5,50.6,29.95,South,172,0.0,0.0,90,0.00,,---,0.00,VWS V14.00,2013-05-08 09:02:00,
2013-05-08 05:04:00,53.4,50.5,29.95,South,172,0.0,0.0,90,0.00,,---,0.00,VWS V14.00,2013-05-08 09:04:00,
2013-05-08 05:07:00,53.3,50.5,29.95,South,172,0.0,0.0,90,0.00,,---,0.00,VWS V14.00,2013-05-08 09:07:00,
2013-05-08 05:09:00,53.2,50.3,29.95,South,172,0.0,0.0,90,0.00,,---,0.00,VWS V14.00,2013-05-08 09:09:00,
2013-05-08 05:12:00,53.1,50.2,29.95,South,172,0.0,0.0,90,0.00,,---,0.00,VWS V14.00,2013-05-08 09:12:00,
2013-05-08 05:15:00,53.0,50.5,29.95,South,172,0.0,0.0,91,0.00,,---,0.00,VWS V14.00,2013-05-08 09:15:00,
2013-05-08 05:16:00,53.0,50.2,29.95,South,172,0.0,0.0,90,0.00,,---,0.00,VWS V14.00,2013-05-08 09:16:00,
2013-05-08 05:17:00,52.9,50.0,29.95,South,172,0.0,0.0,90,0.00,,---,0.00,VWS V14.00,2013-05-08 09:17:00,
2013-05-08 05:18:00,52.9,50.3,29.95,South,172,2.0,2.0,91,0.00,,---,0.00,VWS V14.00,2013-05-08 09:18:00,
2013-05-08 05:21:00,52.8,50.2,29.95,South,172,1.0,2.0,91,0.00,,---,0.00,VWS V14.00,2013-05-08 09:21:00,
2013-05-08 05:22:00,52.8,50.2,29.95,South,172,1.0,2.0,91,0.00,,---,0.00,VWS V14.00,2013-05-08 09:22:00,
2013-05-08 05:23:00,52.8,50.2,29.95,South,172,1.0,2.0,91,0.00,,---,0.00,VWS V14.00,2013-05-08 09:23:00,
2013-05-08 05:25:00,52.7,50.2,29.95,South,172,2.0,2.0,91,0.00,,---,0.00,VWS V14.00,2013-05-08 09:25:00,
2013-05-08 05:26:00,52.7,50.2,29.95,South,172,1.0,2.0,91,0.00,,---,0.00,VWS V14.00,2013-05-08 09:26:00,
2013-05-08 05:27:00,52.7,50.2,29.95,South,172,0.0,2.0,91,0.00,,---,0.00,VWS V14.00,2013-05-08 09:27:00,
2013-05-08 05:28:00,52.6,50.0,29.95,South,172,0.0,2.0,91,0.00,,---,0.00,VWS V14.00,2013-05-08 09:28:00,
2013-05-08 05:30:00,52.6,50.0,29.95,South,172,0.0,0.0,91,0.00,,---,0.00,VWS V14.00,2013-05-08 09:30:00,
2013-05-08 05:33:00,52.5,50.0,29.95,South,172,0.0,0.0,91,0.00,,---,0.00,VWS V14.00,2013-05-08 09:33:00,
2013-05-08 05:34:00,52.4,49.8,29.95,South,172,0.0,0.0,91,0.00,,---,0.00,VWS V14.00,2013-05-08 09:34:00,
2013-05-08 05:38:00,52.4,49.8,29.95,South,172,0.0,0.0,91,0.00,,---,0.00,VWS V14.00,2013-05-08 09:38:00,
2013-05-08 05:39:00,52.3,49.8,29.95,South,172,0.0,0.0,91,0.00,,---,0.00,VWS V14.00,2013-05-08 09:39:00,
2013-05-08 05:40:00,52.4,49.8,29.95,South,172,0.0,0.0,91,0.00,,---,0.00,VWS V14.00,2013-05-08 09:40:00,
2013-05-08 05:44:00,52.4,49.8,29.95,South,172,0.0,0.0,91,0.00,,---,0.00,VWS V14.00,2013-05-08 09:44:00,
2013-05-08 05:45:00,52.4,49.8,29.95,South,172,0.0,0.0,91,0.00,,---,0.00,VWS V14.00,2013-05-08 09:45:00,
2013-05-08 05:46:00,52.4,49.8,29.95,South,172,0.0,0.0,91,0.00,,---,0.00,VWS V14.00,2013-05-08 09:46:00,
2013-05-08 05:49:00,52.4,49.8,29.95,South,172,0.0,0.0,91,0.00,,---,0.00,VWS V14.00,2013-05-08 09:49:00,
2013-05-08 05:50:00,52.3,49.8,29.95,South,172,0.0,0.0,91,0.00,,---,0.00,VWS V14.00,2013-05-08 09:50:00,
2013-05-08 05:51:00,52.3,49.8,29.95,South,172,0.0,0.0,91,0.00,,---,0.00,VWS V14.00,2013-05-08 09:51:00,
2013-05-08 05:56:00,52.3,50.0,29.95,South,172,0.0,0.0,92,0.00,,---,0.00,VWS V14.00,2013-05-08 09:56:00,
2013-05-08 05:57:00,52.3,50.0,29.95,South,172,0.0,0.0,92,0.00,,---,0.00,VWS V14.00,2013-05-08 09:57:00,
2013-05-08 05:58:00,52.4,50.2,29.95,South,172,0.0,0.0,92,0.00,,---,0.00,VWS V14.00,2013-05-08 09:58:00,
2013-05-08 06:01:00,52.5,50.2,29.95,South,172,2.0,2.0,92,0.00,,---,0.00,VWS V14.00,2013-05-08 10:01:00,
2013-05-08 06:02:00,52.6,50.3,29.95,South,172,2.0,2.0,92,0.00,,---,0.00,VWS V14.00,2013-05-08 10:02:00,
2013-05-08 06:03:00,52.6,50.3,29.95,South,172,1.0,2.0,92,0.00,,---,0.00,VWS V14.00,2013-05-08 10:03:00,
2013-05-08 06:04:00,52.7,50.5,29.95,South,172,1.0,2.0,92,0.00,,---,0.00,VWS V14.00,2013-05-08 10:04:00,
2013-05-08 06:06:00,52.8,50.5,29.95,South,172,0.0,2.0,92,0.00,,---,0.00,VWS V14.00,2013-05-08 10:06:00,
2013-05-08 06:09:00,52.9,50.6,29.95,South,172,0.0,2.0,92,0.00,,---,0.00,VWS V14.00,2013-05-08 10:09:00,
2013-05-08 06:10:00,52.9,50.6,29.95,South,172,0.0,2.0,92,0.00,,---,0.00,VWS V14.00,2013-05-08 10:10:00,
2013-05-08 06:12:00,53.0,50.7,29.95,South,172,2.0,3.0,92,0.00,,---,0.00,VWS V14.00,2013-05-08 10:12:00,
2013-05-08 06:15:00,53.1,51.1,29.95,South,172,0.0,3.0,93,0.00,,---,0.00,VWS V14.00,2013-05-08 10:15:00,
2013-05-08 06:17:00,53.1,51.1,29.95,South,172,0.0,3.0,93,0.00,,---,0.00,VWS V14.00,2013-05-08 10:17:00,
2013-05-08 06:21:00,53.1,51.1,29.95,South,172,0.0,3.0,93,0.00,,---,0.00,VWS V14.00,2013-05-08 10:21:00,
2013-05-08 06:22:00,53.1,51.1,29.95,South,172,0.0,3.0,93,0.00,,---,0.00,VWS V14.00,2013-05-08 10:22:00,
2013-05-08 06:24:00,53.1,51.1,29.95,South,172,0.0,3.0,93,0.00,,---,0.00,VWS V14.00,2013-05-08 10:24:00,
2013-05-08 06:26:00,53.1,51.1,29.96,South,172,0.0,3.0,93,0.00,,---,0.00,VWS V14.00,2013-05-08 10:26:00,
2013-05-08 06:27:00,53.0,51.0,29.95,South,172,0.0,3.0,93,0.00,,---,0.00,VWS V14.00,2013-05-08 10:27:00,
2013-05-08 06:30:00,53.0,51.0,29.96,South,172,0.0,0.0,93,0.00,,---,0.00,VWS V14.00,2013-05-08 10:30:00,
2013-05-08 06:31:00,53.0,51.0,29.96,South,172,0.0,0.0,93,0.00,,---,0.00,VWS V14.00,2013-05-08 10:31:00,
2013-05-08 06:32:00,53.0,51.0,29.96,South,172,0.0,0.0,93,0.00,,---,0.00,VWS V14.00,2013-05-08 10:32:00,
2013-05-08 06:33:00,52.9,50.9,29.96,South,172,0.0,0.0,93,0.00,,---,0.00,VWS V14.00,2013-05-08 10:33:00,
2013-05-08 06:36:00,52.7,50.7,29.96,South,172,0.0,0.0,93,0.00,,---,0.00,VWS V14.00,2013-05-08 10:36:00,
2013-05-08 06:37:00,52.6,50.6,29.96,South,172,0.0,0.0,93,0.00,,---,0.00,VWS V14.00,2013-05-08 10:37:00,
2013-05-08 06:38:00,52.6,50.6,29.96,South,172,0.0,0.0,93,0.00,,---,0.00,VWS V14.00,2013-05-08 10:38:00,
2013-05-08 06:40:00,52.4,50.4,29.96,South,172,0.0,0.0,93,0.00,,---,0.00,VWS V14.00,2013-05-08 10:40:00,
2013-05-08 06:43:00,52.4,50.4,29.96,South,172,0.0,0.0,93,0.00,,---,0.00,VWS V14.00,2013-05-08 10:43:00,
2013-05-08 06:44:00,52.4,50.4,29.96,South,172,0.0,0.0,93,0.00,,---,0.00,VWS V14.00,2013-05-08 10:44:00,
2013-05-08 06:45:00,52.4,50.4,29.96,South,172,0.0,0.0,93,0.00,,---,0.00,VWS V14.00,2013-05-08 10:45:00,
2013-05-08 06:47:00,52.4,50.4,29.96,South,172,0.0,0.0,93,0.00,,---,0.00,VWS V14.00,2013-05-08 10:47:00,
2013-05-08 06:49:00,52.4,50.4,29.96,South,172,0.0,0.0,93,0.00,,---,0.00,VWS V14.00,2013-05-08 10:49:00,
2013-05-08 06:50:00,52.4,50.4,29.96,South,172,0.0,0.0,93,0.00,,---,0.00,VWS V14.00,2013-05-08 10:50:00,
2013-05-08 06:51:00,52.4,50.4,29.96,South,172,0.0,0.0,93,0.00,,---,0.00,VWS V14.00,2013-05-08 10:51:00,
2013-05-08 06:54:00,52.4,50.4,29.96,South,172,0.0,0.0,93,0.00,,---,0.00,VWS V14.00,2013-05-08 10:54:00,
2013-05-08 06:55:00,52.3,50.3,29.96,South,172,0.0,0.0,93,0.00,,---,0.00,VWS V14.00,2013-05-08 10:55:00,
2013-05-08 06:56:00,52.4,50.4,29.96,South,172,0.0,0.0,93,0.00,,---,0.00,VWS V14.00,2013-05-08 10:56:00,
2013-05-08 06:59:00,52.4,50.4,29.97,South,172,0.0,0.0,93,0.00,,---,0.00,VWS V14.00,2013-05-08 10:59:00,
2013-05-08 07:01:00,52.5,50.5,29.97,South,172,0.0,0.0,93,0.00,,---,0.00,VWS V14.00,2013-05-08 11:01:00,
2013-05-08 07:02:00,52.5,50.5,29.97,South,172,0.0,0.0,93,0.00,,---,0.00,VWS V14.00,2013-05-08 11:02:00,
2013-05-08 07:04:00,52.6,50.6,29.97,South,172,0.0,0.0,93,0.00,,---,0.00,VWS V14.00,2013-05-08 11:04:00,
2013-05-08 07:05:00,52.7,50.7,29.97,South,172,0.0,0.0,93,0.00,,---,0.00,VWS V14.00,2013-05-08 11:05:00,
2013-05-08 07:06:00,52.7,50.7,29.97,South,172,0.0,0.0,93,0.00,,---,0.00,VWS V14.00,2013-05-08 11:06:00,
2013-05-08 07:07:00,52.9,50.9,29.97,South,172,0.0,0.0,93,0.00,,---,0.00,VWS V14.00,2013-05-08 11:07:00,
2013-05-08 07:08:00,52.9,50.9,29.97,South,172,0.0,0.0,93,0.00,,---,0.00,VWS V14.00,2013-05-08 11:08:00,
2013-05-08 07:10:00,53.1,51.1,29.97,South,172,0.0,0.0,93,0.00,,---,0.00,VWS V14.00,2013-05-08 11:10:00,
2013-05-08 07:12:00,53.3,51.3,29.97,South,172,0.0,0.0,93,0.00,,---,0.00,VWS V14.00,2013-05-08 11:12:00,
2013-05-08 07:13:00,53.5,51.5,29.97,South,172,0.0,0.0,93,0.00,,---,0.00,VWS V14.00,2013-05-08 11:13:00,
2013-05-08 07:14:00,53.5,51.5,29.97,South,172,0.0,0.0,93,0.00,,---,0.00,VWS V14.00,2013-05-08 11:14:00,
2013-05-08 07:16:00,53.8,51.8,29.97,South,172,0.0,0.0,93,0.00,,---,0.00,VWS V14.00,2013-05-08 11:16:00,
2013-05-08 07:18:00,54.1,52.1,29.97,South,172,0.0,0.0,93,0.00,,---,0.00,VWS V14.00,2013-05-08 11:18:00,
2013-05-08 07:19:00,54.2,52.2,29.97,South,172,0.0,0.0,93,0.00,,---,0.00,VWS V14.00,2013-05-08 11:19:00,
2013-05-08 07:20:00,54.6,52.6,29.97,South,172,0.0,0.0,93,0.00,,---,0.00,VWS V14.00,2013-05-08 11:20:00,
2013-05-08 07:21:00,54.7,53.0,29.97,South,172,0.0,0.0,94,0.00,,---,0.00,VWS V14.00,2013-05-08 11:21:00,
2013-05-08 07:23:00,55.0,53.0,29.97,South,172,0.0,0.0,93,0.00,,---,0.00,VWS V14.00,2013-05-08 11:23:00,
2013-05-08 07:24:00,55.1,53.1,29.97,South,172,0.0,0.0,93,0.00,,---,0.00,VWS V14.00,2013-05-08 11:24:00,
2013-05-08 07:25:00,55.3,53.3,29.97,South,172,0.0,0.0,93,0.00,,---,0.00,VWS V14.00,2013-05-08 11:25:00,
2013-05-08 07:26:00,55.4,53.4,29.97,South,172,0.0,0.0,93,0.00,,---,0.00,VWS V14.00,2013-05-08 11:26:00,
2013-05-08 07:28:00,55.5,53.5,29.97,South,172,0.0,0.0,93,0.00,,---,0.00,VWS V14.00,2013-05-08 11:28:00,
2013-05-08 07:29:00,55.5,53.2,29.97,South,172,0.0,0.0,92,0.00,,---,0.00,VWS V14.00,2013-05-08 11:29:00,
2013-05-08 07:32:00,55.7,53.4,29.97,South,172,0.0,0.0,92,0.00,,---,0.00,VWS V14.00,2013-05-08 11:32:00,
2013-05-08 07:33:00,55.7,53.4,29.97,South,172,0.0,0.0,92,0.00,,---,0.00,VWS V14.00,2013-05-08 11:33:00,
2013-05-08 07:35:00,55.7,53.1,29.97,South,172,0.0,0.0,91,0.00,,---,0.00,VWS V14.00,2013-05-08 11:35:00,
2013-05-08 07:37:00,55.8,53.2,29.97,South,172,0.0,0.0,91,0.00,,---,0.00,VWS V14.00,2013-05-08 11:37:00,
2013-05-08 07:38:00,55.8,53.2,29.97,South,172,0.0,0.0,91,0.00,,---,0.00,VWS V14.00,2013-05-08 11:38:00,
2013-05-08 07:40:00,55.9,53.3,29.97,South,172,0.0,0.0,91,0.00,,---,0.00,VWS V14.00,2013-05-08 11:40:00,
2013-05-08 07:42:00,55.9,53.3,29.97,South,172,0.0,0.0,91,0.00,,---,0.00,VWS V14.00,2013-05-08 11:42:00,
2013-05-08 07:44:00,56.1,53.2,29.97,South,172,0.0,0.0,90,0.00,,---,0.00,VWS V14.00,2013-05-08 11:44:00,
2013-05-08 07:45:00,56.2,53.3,29.97,South,172,0.0,0.0,90,0.00,,---,0.00,VWS V14.00,2013-05-08 11:45:00,
2013-05-08 07:46:00,56.3,53.4,29.97,South,172,0.0,0.0,90,0.00,,---,0.00,VWS V14.00,2013-05-08 11:46:00,
2013-05-08 07:47:00,56.5,53.6,29.97,South,172,0.0,0.0,90,0.00,,---,0.00,VWS V14.00,2013-05-08 11:47:00,
2013-05-08 07:49:00,56.8,53.9,29.97,South,172,0.0,0.0,90,0.00,,---,0.00,VWS V14.00,2013-05-08 11:49:00,
2013-05-08 07:50:00,56.9,54.0,29.97,South,172,0.0,0.0,90,0.00,,---,0.00,VWS V14.00,2013-05-08 11:50:00,
2013-05-08 07:51:00,57.0,54.1,29.97,South,172,0.0,0.0,90,0.00,,---,0.00,VWS V14.00,2013-05-08 11:51:00,
2013-05-08 07:52:00,57.3,54.4,29.97,South,172,0.0,0.0,90,0.00,,---,0.00,VWS V14.00,2013-05-08 11:52:00,
2013-05-08 07:53:00,57.4,54.5,29.97,South,172,0.0,0.0,90,0.00,,---,0.00,VWS V14.00,2013-05-08 11:53:00,
2013-05-08 07:55:00,57.8,54.6,29.97,South,172,0.0,0.0,89,0.00,,---,0.00,VWS V14.00,2013-05-08 11:55:00,
2013-05-08 07:58:00,58.4,55.2,29.97,South,172,0.0,0.0,89,0.00,,---,0.00,VWS V14.00,2013-05-08 11:58:00,
2013-05-08 07:59:00,58.7,55.2,29.97,South,172,0.0,0.0,88,0.00,,---,0.00,VWS V14.00,2013-05-08 11:59:00,
2013-05-08 08:01:00,59.0,55.5,29.97,South,172,0.0,0.0,88,0.00,,---,0.00,VWS V14.00,2013-05-08 12:01:00,
2013-05-08 08:03:00,59.3,55.4,29.97,South,172,0.0,0.0,87,0.00,,---,0.00,VWS V14.00,2013-05-08 12:03:00,
2013-05-08 08:05:00,59.8,55.6,29.97,South,172,0.0,0.0,86,0.00,,---,0.00,VWS V14.00,2013-05-08 12:05:00,
2013-05-08 08:07:00,59.9,55.4,29.97,South,172,0.0,0.0,85,0.00,,---,0.00,VWS V14.00,2013-05-08 12:07:00,
2013-05-08 08:08:00,60.2,55.7,29.97,South,172,0.0,0.0,85,0.00,,---,0.00,VWS V14.00,2013-05-08 12:08:00,
2013-05-08 08:10:00,60.4,55.2,29.97,South,172,0.0,0.0,83,0.00,,---,0.00,VWS V14.00,2013-05-08 12:10:00,
2013-05-08 08:12:00,60.5,55.3,29.97,South,172,0.0,0.0,83,0.00,,---,0.00,VWS V14.00,2013-05-08 12:12:00,
2013-05-08 08:13:00,60.6,55.4,29.97,South,172,0.0,0.0,83,0.00,,---,0.00,VWS V14.00,2013-05-08 12:13:00,
2013-05-08 08:14:00,60.6,55.1,29.97,South,172,0.0,0.0,82,0.00,,---,0.00,VWS V14.00,2013-05-08 12:14:00,
2013-05-08 08:16:00,60.7,54.8,29.97,South,172,0.0,0.0,81,0.00,,---,0.00,VWS V14.00,2013-05-08 12:16:00,
2013-05-08 08:17:00,60.7,54.8,29.97,South,172,0.0,0.0,81,0.00,,---,0.00,VWS V14.00,2013-05-08 12:17:00,
2013-05-08 08:18:00,60.9,55.0,29.97,South,172,0.0,0.0,81,0.00,,---,0.00,VWS V14.00,2013-05-08 12:18:00,
2013-05-08 08:19:00,60.9,55.0,29.97,South,172,0.0,0.0,81,0.00,,---,0.00,VWS V14.00,2013-05-08 12:19:00,
2013-05-08 08:20:00,61.0,55.1,29.97,South,172,0.0,0.0,81,0.00,,---,0.00,VWS V14.00,2013-05-08 12:20:00,
2013-05-08 08:22:00,61.1,54.9,29.97,South,172,0.0,0.0,80,0.00,,---,0.00,VWS V14.00,2013-05-08 12:22:00,
2013-05-08 08:25:00,61.2,55.0,29.98,South,172,0.0,0.0,80,0.00,,---,0.00,VWS V14.00,2013-05-08 12:25:00,
2013-05-08 08:26:00,61.3,55.1,29.98,South,172,0.0,0.0,80,0.00,,---,0.00,VWS V14.00,2013-05-08 12:26:00,
2013-05-08 08:28:00,61.6,55.0,29.98,South,172,0.0,0.0,79,0.00,,---,0.00,VWS V14.00,2013-05-08 12:28:00,
2013-05-08 08:30:00,61.8,55.2,29.97,South,172,0.0,0.0,79,0.00,,---,0.00,VWS V14.00,2013-05-08 12:30:00,
2013-05-08 08:31:00,61.9,55.3,29.97,South,172,0.0,0.0,79,0.00,,---,0.00,VWS V14.00,2013-05-08 12:31:00,
2013-05-08 08:33:00,62.3,55.4,29.97,South,172,0.0,0.0,78,0.00,,---,0.00,VWS V14.00,2013-05-08 12:33:00,
2013-05-08 08:36:00,62.7,55.4,29.98,South,172,0.0,0.0,77,0.00,,---,0.00,VWS V14.00,2013-05-08 12:36:00,
2013-05-08 08:37:00,62.8,55.5,29.98,South,172,0.0,0.0,77,0.00,,---,0.00,VWS V14.00,2013-05-08 12:37:00,
2013-05-08 08:39:00,63.1,55.4,29.98,South,172,0.0,0.0,76,0.00,,---,0.00,VWS V14.00,2013-05-08 12:39:00,
2013-05-08 08:41:00,63.5,55.4,29.98,South,172,0.0,0.0,75,0.00,,---,0.00,VWS V14.00,2013-05-08 12:41:00,
2013-05-08 08:42:00,63.5,55.4,29.98,South,172,0.0,0.0,75,0.00,,---,0.00,VWS V14.00,2013-05-08 12:42:00,
2013-05-08 08:44:00,63.8,55.7,29.98,South,172,0.0,0.0,75,0.00,,---,0.00,VWS V14.00,2013-05-08 12:44:00,
2013-05-08 08:46:00,64.3,56.2,29.98,South,172,0.0,0.0,75,0.00,,---,0.00,VWS V14.00,2013-05-08 12:46:00,
2013-05-08 08:47:00,64.4,55.9,29.98,South,172,0.0,0.0,74,0.00,,---,0.00,VWS V14.00,2013-05-08 12:47:00,
2013-05-08 08:49:00,64.8,56.0,29.98,South,172,0.0,0.0,73,0.00,,---,0.00,VWS V14.00,2013-05-08 12:49:00,
2013-05-08 08:51:00,65.0,55.8,29.98,South,172,0.0,0.0,72,0.00,,---,0.00,VWS V14.00,2013-05-08 12:51:00,
2013-05-08 08:52:00,65.2,56.0,29.98,South,172,0.0,0.0,72,0.00,,---,0.00,VWS V14.00,2013-05-08 12:52:00,
2013-05-08 08:55:00,65.4,55.8,29.98,South,172,0.0,0.0,71,0.00,,---,0.00,VWS V14.00,2013-05-08 12:55:00,
2013-05-08 08:56:00,65.5,55.9,29.98,South,172,0.0,0.0,71,0.00,,---,0.00,VWS V14.00,2013-05-08 12:56:00,
2013-05-08 08:57:00,65.8,56.2,29.98,South,172,0.0,0.0,71,0.00,,---,0.00,VWS V14.00,2013-05-08 12:57:00,
2013-05-08 08:58:00,66.1,56.0,29.98,South,172,0.0,0.0,70,0.00,,---,0.00,VWS V14.00,2013-05-08 12:58:00,
2013-05-08 09:01:00,66.7,56.2,29.98,South,172,0.0,0.0,69,0.00,,---,0.00,VWS V14.00,2013-05-08 13:01:00,
2013-05-08 09:02:00,67.0,56.5,29.98,South,172,0.0,0.0,69,0.00,,---,0.00,VWS V14.00,2013-05-08 13:02:00,
2013-05-08 09:03:00,67.1,56.6,29.98,South,172,0.0,0.0,69,0.00,,---,0.00,VWS V14.00,2013-05-08 13:03:00,
2013-05-08 09:04:00,67.3,56.8,29.98,South,172,0.0,0.0,69,0.00,,---,0.00,VWS V14.00,2013-05-08 13:04:00,
2013-05-08 09:07:00,68.4,57.0,29.98,South,172,0.0,0.0,67,0.00,,---,0.00,VWS V14.00,2013-05-08 13:07:00,
2013-05-08 09:08:00,68.4,57.0,29.98,South,172,0.0,0.0,67,0.00,,---,0.00,VWS V14.00,2013-05-08 13:08:00,
2013-05-08 09:09:00,68.6,56.8,29.98,South,172,0.0,0.0,66,0.00,,---,0.00,VWS V14.00,2013-05-08 13:09:00,
2013-05-08 09:14:00,69.0,57.2,29.98,South,172,0.0,0.0,66,0.00,,---,0.00,VWS V14.00,2013-05-08 13:14:00,
2013-05-08 09:15:00,68.9,56.7,29.98,South,172,0.0,0.0,65,0.00,,---,0.00,VWS V14.00,2013-05-08 13:15:00,
2013-05-08 09:16:00,68.9,56.7,29.98,South,172,0.0,0.0,65,0.00,,---,0.00,VWS V14.00,2013-05-08 13:16:00,
2013-05-08 09:19:00,69.2,56.5,29.98,South,172,0.0,0.0,64,0.00,,---,0.00,VWS V14.00,2013-05-08 13:19:00,
2013-05-08 09:20:00,69.2,56.1,29.98,South,172,0.0,0.0,63,0.00,,---,0.00,VWS V14.00,2013-05-08 13:20:00,
2013-05-08 09:21:00,69.2,55.6,29.98,South,172,0.0,0.0,62,0.00,,---,0.00,VWS V14.00,2013-05-08 13:21:00,
2013-05-08 09:22:00,69.4,55.4,29.98,South,172,0.0,0.0,61,0.00,,---,0.00,VWS V14.00,2013-05-08 13:22:00,
2013-05-08 09:25:00,69.7,54.8,29.98,South,172,0.0,0.0,59,0.00,,---,0.00,VWS V14.00,2013-05-08 13:25:00,
2013-05-08 09:26:00,69.8,54.8,29.98,South,172,0.0,0.0,59,0.00,,---,0.00,VWS V14.00,2013-05-08 13:26:00,
2013-05-08 09:29:00,70.6,55.1,29.98,South,172,0.0,0.0,58,0.00,,---,0.00,VWS V14.00,2013-05-08 13:29:00,
2013-05-08 09:31:00,70.8,55.3,29.98,South,172,1.0,3.0,58,0.00,,---,0.00,VWS V14.00,2013-05-08 13:31:00,
2013-05-08 09:32:00,71.0,55.5,29.98,South,172,0.0,3.0,58,0.00,,---,0.00,VWS V14.00,2013-05-08 13:32:00,
2013-05-08 09:37:00,71.9,55.9,29.98,South,172,0.0,3.0,57,0.00,,---,0.00,VWS V14.00,2013-05-08 13:37:00,
2013-05-08 09:38:00,72.1,55.6,29.98,South,172,0.0,3.0,56,0.00,,---,0.00,VWS V14.00,2013-05-08 13:38:00,
2013-05-08 09:42:00,72.6,55.5,29.98,South,172,0.0,3.0,55,0.00,,---,0.00,VWS V14.00,2013-05-08 13:42:00,
2013-05-08 09:43:00,72.7,55.1,29.98,South,172,0.0,3.0,54,0.00,,---,0.00,VWS V14.00,2013-05-08 13:43:00,
2013-05-08 09:44:00,72.8,55.2,29.98,South,172,0.0,3.0,54,0.00,,---,0.00,VWS V14.00,2013-05-08 13:44:00,
2013-05-08 09:46:00,73.1,55.5,29.98,South,172,0.0,3.0,54,0.00,,---,0.00,VWS V14.00,2013-05-08 13:46:00,
2013-05-08 09:50:00,73.4,55.2,29.98,South,172,0.0,3.0,53,0.00,,---,0.00,VWS V14.00,2013-05-08 13:50:00,
2013-05-08 09:51:00,73.4,55.2,29.98,South,172,0.0,3.0,53,0.00,,---,0.00,VWS V14.00,2013-05-08 13:51:00,
2013-05-08 09:55:00,73.2,55.1,29.98,South,172,0.0,3.0,53,0.00,,---,0.00,VWS V14.00,2013-05-08 13:55:00,
2013-05-08 09:57:00,73.3,55.2,29.97,South,172,0.0,3.0,53,0.00,,---,0.00,VWS V14.00,2013-05-08 13:57:00,
2013-05-08 09:58:00,73.4,54.7,29.97,South,172,0.0,3.0,52,0.00,,---,0.00,VWS V14.00,2013-05-08 13:58:00,
2013-05-08 10:00:00,73.7,55.0,29.98,South,172,0.0,0.0,52,0.00,,---,0.00,VWS V14.00,2013-05-08 14:00:00,
2013-05-08 10:01:00,73.8,53.5,29.98,South,172,0.0,0.0,49,0.00,,---,0.00,VWS V14.00,2013-05-08 14:01:00,
2013-05-08 10:02:00,73.9,54.1,29.98,South,172,0.0,1.0,50,0.00,,---,0.00,VWS V14.00,2013-05-08 14:02:00,
2013-05-08 10:03:00,74.0,53.7,29.98,South,172,0.0,1.0,49,0.00,,---,0.00,VWS V14.00,2013-05-08 14:03:00,
2013-05-08 10:04:00,74.1,53.7,29.98,South,172,0.0,1.0,49,0.00,,---,0.00,VWS V14.00,2013-05-08 14:04:00,
2013-05-08 10:05:00,74.1,54.3,29.98,South,172,0.0,4.0,50,0.00,,---,0.00,VWS V14.00,2013-05-08 14:05:00,
2013-05-08 10:08:00,74.2,54.4,29.98,South,172,0.0,4.0,50,0.00,,---,0.00,VWS V14.00,2013-05-08 14:08:00,
2013-05-08 10:09:00,74.2,54.4,29.98,South,172,3.0,4.0,50,0.00,,---,0.00,VWS V14.00,2013-05-08 14:09:00,
2013-05-08 10:10:00,74.3,54.5,29.98,South,172,0.0,4.0,50,0.00,,---,0.00,VWS V14.00,2013-05-08 14:10:00,
2013-05-08 10:13:00,74.6,54.8,29.98,South,172,1.0,4.0,50,0.00,,---,0.00,VWS V14.00,2013-05-08 14:13:00,
2013-05-08 10:14:00,74.6,54.2,29.98,South,172,0.0,4.0,49,0.00,,---,0.00,VWS V14.00,2013-05-08 14:14:00,
2013-05-08 10:15:00,74.6,54.2,29.98,South,172,0.0,4.0,49,0.00,,---,0.00,VWS V14.00,2013-05-08 14:15:00,
2013-05-08 10:18:00,74.1,53.7,29.97,SE,144,2.0,4.0,49,0.00,,---,0.00,VWS V14.00,2013-05-08 14:18:00,
2013-05-08 10:19:00,73.8,53.5,29.97,SE,141,0.0,4.0,49,0.00,,---,0.00,VWS V14.00,2013-05-08 14:19:00,
2013-05-08 10:20:00,73.8,53.5,29.97,SE,141,0.0,4.0,49,0.00,,---,0.00,VWS V14.00,2013-05-08 14:20:00,
2013-05-08 10:22:00,73.5,53.7,29.98,SE,138,3.0,4.0,50,0.00,,---,0.00,VWS V14.00,2013-05-08 14:22:00,
2013-05-08 10:24:00,73.7,53.9,29.98,SE,138,4.0,4.0,50,0.00,,---,0.00,VWS V14.00,2013-05-08 14:24:00,
2013-05-08 10:25:00,73.7,53.4,29.97,SE,138,0.0,4.0,49,0.00,,---,0.00,VWS V14.00,2013-05-08 14:25:00,
2013-05-08 10:26:00,73.7,53.4,29.97,SE,138,1.0,4.0,49,0.00,,---,0.00,VWS V14.00,2013-05-08 14:26:00,
2013-05-08 10:27:00,73.9,53.6,29.97,SE,138,0.0,4.0,49,0.00,,---,0.00,VWS V14.00,2013-05-08 14:27:00,
2013-05-08 10:28:00,74.2,53.3,29.97,SE,138,0.0,0.0,48,0.00,,---,0.00,VWS V14.00,2013-05-08 14:28:00,
2013-05-08 10:31:00,74.5,54.1,29.97,SE,138,0.0,1.0,49,0.00,,---,0.00,VWS V14.00,2013-05-08 14:31:00,
2013-05-08 10:32:00,74.6,54.2,29.97,SE,126,2.0,5.0,49,0.00,,---,0.00,VWS V14.00,2013-05-08 14:32:00,
2013-05-08 10:33:00,74.7,54.3,29.97,SE,126,0.0,5.0,49,0.00,,---,0.00,VWS V14.00,2013-05-08 14:33:00,
2013-05-08 10:36:00,74.7,53.7,29.97,ESE,119,0.0,5.0,48,0.00,,---,0.00,VWS V14.00,2013-05-08 14:36:00,
2013-05-08 10:37:00,74.7,53.7,29.97,ESE,119,0.0,5.0,48,0.00,,---,0.00,VWS V14.00,2013-05-08 14:37:00,
2013-05-08 10:38:00,74.9,54.5,29.97,ESE,119,0.0,5.0,49,0.00,,---,0.00,VWS V14.00,2013-05-08 14:38:00,
2013-05-08 10:41:00,75.3,54.3,29.97,NNE,24,3.0,6.0,48,0.00,,---,0.00,VWS V14.00,2013-05-08 14:41:00,
2013-05-08 10:44:00,75.7,53.5,29.97,NW,317,5.0,7.0,46,0.00,,---,0.00,VWS V14.00,2013-05-08 14:44:00,
2013-05-08 10:45:00,75.8,53.6,29.97,WNW,295,6.0,9.0,46,0.00,,---,0.00,VWS V14.00,2013-05-08 14:45:00,
2013-05-08 10:46:00,75.9,53.7,29.97,WNW,289,5.0,9.0,46,0.00,,---,0.00,VWS V14.00,2013-05-08 14:46:00,
2013-05-08 10:48:00,76.1,53.2,29.97,WNW,294,3.0,9.0,45,0.00,,---,0.00,VWS V14.00,2013-05-08 14:48:00,
2013-05-08 10:49:00,76.2,52.7,29.97,WNW,294,3.0,9.0,44,0.00,,---,0.00,VWS V14.00,2013-05-08 14:49:00,
2013-05-08 10:50:00,76.2,52.7,29.97,WNW,294,1.0,9.0,44,0.00,,---,0.00,VWS V14.00,2013-05-08 14:50:00,
2013-05-08 10:51:00,76.2,52.7,29.97,WNW,294,0.0,9.0,44,0.00,,---,0.00,VWS V14.00,2013-05-08 14:51:00,
2013-05-08 10:54:00,75.4,52.0,29.97,NW,307,0.0,9.0,44,0.00,,---,0.00,VWS V14.00,2013-05-08 14:54:00,
2013-05-08 10:55:00,75.4,52.0,29.97,NW,307,3.0,9.0,44,0.00,,---,0.00,VWS V14.00,2013-05-08 14:55:00,
2013-05-08 10:57:00,75.2,51.8,29.97,NW,307,2.0,9.0,44,0.00,,---,0.00,VWS V14.00,2013-05-08 14:57:00,
2013-05-08 10:59:00,75.3,52.5,29.97,NW,307,3.0,3.0,45,0.00,,---,0.00,VWS V14.00,2013-05-08 14:59:00,
2013-05-08 11:01:00,75.5,52.7,29.97,NW,307,3.0,4.0,45,0.00,,---,0.00,VWS V14.00,2013-05-08 15:01:00,
2013-05-08 11:04:00,76.1,53.2,29.97,NW,308,0.0,4.0,45,0.00,,---,0.00,VWS V14.00,2013-05-08 15:04:00,
2013-05-08 11:05:00,76.2,53.3,29.97,NW,309,0.0,4.0,45,0.00,,---,0.00,VWS V14.00,2013-05-08 15:05:00,
2013-05-08 11:06:00,76.4,53.5,29.97,NW,309,3.0,4.0,45,0.00,,---,0.00,VWS V14.00,2013-05-08 15:06:00,
2013-05-08 11:09:00,76.8,53.9,29.97,ENE,60,4.0,7.0,45,0.00,,---,0.00,VWS V14.00,2013-05-08 15:09:00,
2013-05-08 11:10:00,76.6,53.7,29.97,ENE,57,4.0,7.0,45,0.00,,---,0.00,VWS V14.00,2013-05-08 15:10:00,
2013-05-08 11:11:00,76.4,53.5,29.97,ENE,63,0.0,7.0,45,0.00,,---,0.00,VWS V14.00,2013-05-08 15:11:00,
2013-05-08 11:12:00,76.1,53.8,29.97,ENE,64,0.0,7.0,46,0.00,,---,0.00,VWS V14.00,2013-05-08 15:12:00,
2013-05-08 11:13:00,76.1,53.2,29.97,ENE,64,0.0,7.0,45,0.00,,---,0.00,VWS V14.00,2013-05-08 15:13:00,
2013-05-08 11:15:00,76.2,53.3,29.97,ENE,64,0.0,7.0,45,0.00,,---,0.00,VWS V14.00,2013-05-08 15:15:00,
2013-05-08 11:18:00,76.5,53.6,29.97,NNE,14,4.0,9.0,45,0.00,,---,0.00,VWS V14.00,2013-05-08 15:18:00,
2013-05-08 11:19:00,76.4,52.9,29.97,NNE,14,0.0,9.0,44,0.00,,---,0.00,VWS V14.00,2013-05-08 15:19:00,
2013-05-08 11:20:00,76.3,52.8,29.97,North,360,5.0,9.0,44,0.00,,---,0.00,VWS V14.00,2013-05-08 15:20:00,
2013-05-08 11:21:00,76.3,52.8,29.97,North,360,5.0,9.0,44,0.00,,---,0.00,VWS V14.00,2013-05-08 15:21:00,
2013-05-08 11:23:00,76.1,52.6,29.97,NNE,13,5.0,9.0,44,0.00,,---,0.00,VWS V14.00,2013-05-08 15:23:00,
2013-05-08 11:24:00,76.0,52.5,29.97,North,10,3.0,9.0,44,0.00,,---,0.00,VWS V14.00,2013-05-08 15:24:00,
2013-05-08 11:27:00,75.9,52.5,29.97,North,9,3.0,9.0,44,0.00,,---,0.00,VWS V14.00,2013-05-08 15:27:00,
2013-05-08 11:28:00,76.0,52.5,29.97,North,9,4.0,9.0,44,0.00,,---,0.00,VWS V14.00,2013-05-08 15:28:00,
2013-05-08 11:31:00,76.4,52.3,29.97,North,355,4.0,5.0,43,0.00,,---,0.00,VWS V14.00,2013-05-08 15:31:00,
2013-05-08 11:33:00,76.9,52.7,29.97,NNW,340,3.0,6.0,43,0.00,,---,0.00,VWS V14.00,2013-05-08 15:33:00,
2013-05-08 11:34:00,77.1,52.9,29.97,NNW,340,3.0,6.0,43,0.00,,---,0.00,VWS V14.00,2013-05-08 15:34:00,
2013-05-08 11:37:00,76.9,53.3,29.97,NNW,346,4.0,7.0,44,0.00,,---,0.00,VWS V14.00,2013-05-08 15:37:00,
2013-05-08 11:39:00,77.0,53.4,29.97,NNW,342,6.0,7.0,44,0.00,,---,0.00,VWS V14.00,2013-05-08 15:39:00,
2013-05-08 11:40:00,77.0,53.4,29.97,NNW,345,4.0,7.0,44,0.00,,---,0.00,VWS V14.00,2013-05-08 15:40:00,
2013-05-08 11:42:00,77.1,53.5,29.97,NNW,345,3.0,7.0,44,0.00,,---,0.00,VWS V14.00,2013-05-08 15:42:00,
2013-05-08 11:43:00,77.1,53.5,29.97,North,349,2.0,7.0,44,0.00,,---,0.00,VWS V14.00,2013-05-08 15:43:00,
2013-05-08 11:47:00,76.9,54.0,29.97,North,355,2.0,7.0,45,0.00,,---,0.00,VWS V14.00,2013-05-08 15:47:00,
2013-05-08 11:48:00,77.0,54.1,29.97,North,355,0.0,7.0,45,0.00,,---,0.00,VWS V14.00,2013-05-08 15:48:00,
2013-05-08 11:49:00,77.2,53.6,29.96,NNW,341,3.0,7.0,44,0.00,,---,0.00,VWS V14.00,2013-05-08 15:49:00,
2013-05-08 11:53:00,78.3,54.0,29.96,NNW,334,2.0,7.0,43,0.00,,---,0.00,VWS V14.00,2013-05-08 15:53:00,
2013-05-08 11:54:00,78.4,54.1,29.96,NNW,335,0.0,7.0,43,0.00,,---,0.00,VWS V14.00,2013-05-08 15:54:00,
2013-05-08 11:55:00,78.7,54.3,29.96,NNW,335,2.0,7.0,43,0.00,,---,0.00,VWS V14.00,2013-05-08 15:55:00,
2013-05-08 11:58:00,78.7,53.7,29.96,ESE,111,4.0,7.0,42,0.00,,---,0.00,VWS V14.00,2013-05-08 15:58:00,
2013-05-08 11:59:00,78.7,53.7,29.97,ESE,120,7.0,7.0,42,0.00,,---,0.00,VWS V14.00,2013-05-08 15:59:00,
2013-05-08 12:01:00,78.2,53.9,29.96,ENE,61,0.0,7.0,43,0.00,,---,0.00,VWS V14.00,2013-05-08 16:01:00,
2013-05-08 12:02:00,78.1,53.8,29.96,ENE,58,2.0,7.0,43,0.00,,---,0.00,VWS V14.00,2013-05-08 16:02:00,
2013-05-08 12:05:00,78.7,53.7,29.96,ENE,75,1.0,7.0,42,0.00,,---,0.00,VWS V14.00,2013-05-08 16:05:00,
2013-05-08 12:06:00,78.9,53.9,29.96,NNE,25,3.0,7.0,42,0.00,,---,0.00,VWS V14.00,2013-05-08 16:06:00,
2013-05-08 12:08:00,78.7,53.7,29.96,NNE,28,0.0,7.0,42,0.00,,---,0.00,VWS V14.00,2013-05-08 16:08:00,
2013-05-08 12:09:00,78.7,53.7,29.96,NNE,26,1.0,7.0,42,0.00,,---,0.00,VWS V14.00,2013-05-08 16:09:00,
2013-05-08 12:11:00,79.0,54.0,29.96,NNW,337,4.0,7.0,42,0.00,,---,0.00,VWS V14.00,2013-05-08 16:11:00,
2013-05-08 12:12:00,79.2,54.2,29.96,NNW,337,3.0,7.0,42,0.00,,---,0.00,VWS V14.00,2013-05-08 16:12:00,
2013-05-08 12:13:00,79.6,54.5,29.96,NNW,336,3.0,7.0,42,0.00,,---,0.00,VWS V14.00,2013-05-08 16:13:00,
2013-05-08 12:14:00,79.7,54.6,29.96,NNW,336,2.0,7.0,42,0.00,,---,0.00,VWS V14.00,2013-05-08 16:14:00,
2013-05-08 12:16:00,79.9,54.1,29.96,NNW,336,3.0,7.0,41,0.00,,---,0.00,VWS V14.00,2013-05-08 16:16:00,
2013-05-08 12:18:00,79.8,54.0,29.96,NNW,336,0.0,7.0,41,0.00,,---,0.00,VWS V14.00,2013-05-08 16:18:00,
2013-05-08 12:19:00,79.8,54.0,29.96,NNW,336,2.0,7.0,41,0.00,,---,0.00,VWS V14.00,2013-05-08 16:19:00,
2013-05-08 12:21:00,80.0,54.2,29.96,NNW,336,4.0,7.0,41,0.00,,---,0.00,VWS V14.00,2013-05-08 16:21:00,
2013-05-08 12:23:00,79.8,54.0,29.96,NNE,16,5.0,8.0,41,0.00,,---,0.00,VWS V14.00,2013-05-08 16:23:00,
2013-05-08 12:24:00,79.5,53.8,29.96,North,11,4.0,8.0,41,0.00,,---,0.00,VWS V14.00,2013-05-08 16:24:00,
2013-05-08 12:25:00,79.3,53.6,29.96,North,360,6.0,8.0,41,0.00,,---,0.00,VWS V14.00,2013-05-08 16:25:00,
2013-05-08 12:27:00,79.1,54.7,29.96,ENE,61,3.0,8.0,43,0.00,,---,0.00,VWS V14.00,2013-05-08 16:27:00,
2013-05-08 12:28:00,79.1,54.7,29.96,ENE,62,2.0,8.0,43,0.00,,---,0.00,VWS V14.00,2013-05-08 16:28:00,
2013-05-08 12:29:00,79.1,54.1,29.96,ENE,58,1.0,2.0,42,0.00,,---,0.00,VWS V14.00,2013-05-08 16:29:00,
2013-05-08 12:32:00,79.6,53.8,29.96,WNW,287,7.0,9.0,41,0.00,,---,0.00,VWS V14.00,2013-05-08 16:32:00,
2013-05-08 12:34:00,80.1,54.3,29.96,WNW,292,9.0,11.0,41,0.00,,---,0.00,VWS V14.00,2013-05-08 16:34:00,
2013-05-08 12:35:00,80.2,54.4,29.96,WNW,290,10.0,12.0,41,0.00,,---,0.00,VWS V14.00,2013-05-08 16:35:00,
2013-05-08 12:40:00,80.1,53.6,29.96,WNW,290,5.0,13.0,40,0.00,,---,0.00,VWS V14.00,2013-05-08 16:40:00,
2013-05-08 12:41:00,79.6,53.8,29.96,West,270,3.0,13.0,41,0.00,,---,0.00,VWS V14.00,2013-05-08 16:41:00,
2013-05-08 12:44:00,79.1,53.4,29.96,West,279,5.0,13.0,41,0.00,,---,0.00,VWS V14.00,2013-05-08 16:44:00,
2013-05-08 12:45:00,78.9,53.2,29.96,WNW,287,1.0,13.0,41,0.00,,---,0.00,VWS V14.00,2013-05-08 16:45:00,
2013-05-08 12:47:00,78.7,53.0,29.95,WNW,296,4.0,13.0,41,0.00,,---,0.00,VWS V14.00,2013-05-08 16:47:00,
2013-05-08 12:48:00,78.7,53.0,29.95,WNW,296,2.0,13.0,41,0.00,,---,0.00,VWS V14.00,2013-05-08 16:48:00,
2013-05-08 12:50:00,78.7,53.0,29.95,WNW,295,2.0,13.0,41,0.00,,---,0.00,VWS V14.00,2013-05-08 16:50:00,
2013-05-08 12:52:00,78.3,52.7,29.96,WNW,296,0.0,13.0,41,0.00,,---,0.00,VWS V14.00,2013-05-08 16:52:00,
2013-05-08 12:53:00,78.2,53.2,29.95,WNW,295,2.0,13.0,42,0.00,,---,0.00,VWS V14.00,2013-05-08 16:53:00,
2013-05-08 12:55:00,77.9,53.0,29.95,WNW,296,2.0,13.0,42,0.00,,---,0.00,VWS V14.00,2013-05-08 16:55:00,
2013-05-08 12:56:00,78.0,53.1,29.95,North,355,7.0,13.0,42,0.00,,---,0.00,VWS V14.00,2013-05-08 16:56:00,
2013-05-08 12:57:00,78.0,53.1,29.95,North,5,8.0,13.0,42,0.00,,---,0.00,VWS V14.00,2013-05-08 16:57:00,
2013-05-08 13:00:00,78.0,53.1,29.95,North,10,6.0,8.0,42,0.00,,---,0.00,VWS V14.00,2013-05-08 17:00:00,
2013-05-08 13:02:00,77.9,53.0,29.95,North,355,7.0,8.0,42,0.00,,---,0.00,VWS V14.00,2013-05-08 17:02:00,
2013-05-08 13:03:00,78.1,53.8,29.95,NNE,23,4.0,8.0,43,0.00,,---,0.00,VWS V14.00,2013-05-08 17:03:00,
2013-05-08 13:04:00,78.2,53.9,29.95,NE,37,3.0,8.0,43,0.00,,---,0.00,VWS V14.00,2013-05-08 17:04:00,
2013-05-08 13:07:00,78.4,53.4,29.95,East,92,0.0,8.0,42,0.00,,---,0.00,VWS V14.00,2013-05-08 17:07:00,
2013-05-08 13:08:00,78.5,53.5,29.95,East,95,2.0,8.0,42,0.00,,---,0.00,VWS V14.00,2013-05-08 17:08:00,
2013-05-08 13:10:00,78.5,54.2,29.95,East,95,0.0,8.0,43,0.00,,---,0.00,VWS V14.00,2013-05-08 17:10:00,
2013-05-08 13:11:00,78.5,54.2,29.95,NNE,32,6.0,8.0,43,0.00,,---,0.00,VWS V14.00,2013-05-08 17:11:00,
2013-05-08 13:12:00,78.7,54.3,29.95,NNE,31,10.0,11.0,43,0.00,,---,0.00,VWS V14.00,2013-05-08 17:12:00,
2013-05-08 13:13:00,78.7,54.3,29.95,North,355,5.0,11.0,43,0.00,,---,0.00,VWS V14.00,2013-05-08 17:13:00,
2013-05-08 13:14:00,78.7,54.3,29.95,NNE,22,5.0,11.0,43,0.00,,---,0.00,VWS V14.00,2013-05-08 17:14:00,
2013-05-08 13:16:00,78.9,54.5,29.95,North,355,8.0,12.0,43,0.00,,---,0.00,VWS V14.00,2013-05-08 17:16:00,
2013-05-08 13:17:00,78.9,54.5,29.95,North,360,3.0,12.0,43,0.00,,---,0.00,VWS V14.00,2013-05-08 17:17:00,
2013-05-08 13:18:00,78.9,54.5,29.95,North,360,4.0,12.0,43,0.00,,---,0.00,VWS V14.00,2013-05-08 17:18:00,
2013-05-08 13:19:00,78.9,53.9,29.95,NNE,18,9.0,12.0,42,0.00,,---,0.00,VWS V14.00,2013-05-08 17:19:00,
2013-05-08 13:22:00,78.6,54.3,29.95,NNE,23,8.0,12.0,43,0.00,,---,0.00,VWS V14.00,2013-05-08 17:22:00,
2013-05-08 13:23:00,78.5,54.2,29.95,North,5,7.0,12.0,43,0.00,,---,0.00,VWS V14.00,2013-05-08 17:23:00,
2013-05-08 13:25:00,78.2,53.9,29.95,North,349,4.0,12.0,43,0.00,,---,0.00,VWS V14.00,2013-05-08 17:25:00,
2013-05-08 13:28:00,78.3,54.0,29.95,NNW,327,5.0,12.0,43,0.00,,---,0.00,VWS V14.00,2013-05-08 17:28:00,
2013-05-08 13:29:00,78.3,54.0,29.95,NNW,340,9.0,10.0,43,0.00,,---,0.00,VWS V14.00,2013-05-08 17:29:00,
2013-05-08 13:30:00,78.4,54.1,29.95,NNE,30,6.0,11.0,43,0.00,,---,0.00,VWS V14.00,2013-05-08 17:30:00,
2013-05-08 13:31:00,78.3,54.6,29.95,NE,40,5.0,11.0,44,0.00,,---,0.00,VWS V14.00,2013-05-08 17:31:00,
2013-05-08 13:33:00,78.1,54.4,29.95,NE,54,4.0,11.0,44,0.00,,---,0.00,VWS V14.00,2013-05-08 17:33:00,
2013-05-08 13:34:00,78.1,53.8,29.95,NE,54,0.0,11.0,43,0.00,,---,0.00,VWS V14.00,2013-05-08 17:34:00,
2013-05-08 13:35:00,78.0,54.3,29.94,ENE,63,5.0,11.0,44,0.00,,---,0.00,VWS V14.00,2013-05-08 17:35:00,
2013-05-08 13:36:00,77.9,54.3,29.95,East,81,5.0,11.0,44,0.00,,---,0.00,VWS V14.00,2013-05-08 17:36:00,
2013-05-08 13:37:00,77.6,53.4,29.95,East,81,3.0,11.0,43,0.00,,---,0.00,VWS V14.00,2013-05-08 17:37:00,
2013-05-08 13:38:00,77.5,53.3,29.95,East,81,3.0,11.0,43,0.00,,---,0.00,VWS V14.00,2013-05-08 17:38:00,
2013-05-08 13:39:00,77.3,53.1,29.95,North,9,6.0,11.0,43,0.00,,---,0.00,VWS V14.00,2013-05-08 17:39:00,
2013-05-08 13:41:00,77.1,53.5,29.95,NNW,329,7.0,11.0,44,0.00,,---,0.00,VWS V14.00,2013-05-08 17:41:00,
2013-05-08 13:42:00,77.1,53.5,29.94,NW,321,4.0,11.0,44,0.00,,---,0.00,VWS V14.00,2013-05-08 17:42:00,
2013-05-08 13:43:00,77.2,53.6,29.94,NNW,340,7.0,11.0,44,0.00,,---,0.00,VWS V14.00,2013-05-08 17:43:00,
2013-05-08 13:44:00,77.3,53.7,29.95,North,360,3.0,11.0,44,0.00,,---,0.00,VWS V14.00,2013-05-08 17:44:00,
2013-05-08 13:46:00,77.3,53.7,29.95,NNE,13,5.0,11.0,44,0.00,,---,0.00,VWS V14.00,2013-05-08 17:46:00,
2013-05-08 13:47:00,77.4,53.8,29.95,NNE,13,4.0,11.0,44,0.00,,---,0.00,VWS V14.00,2013-05-08 17:47:00,
2013-05-08 13:48:00,77.7,54.7,29.94,ENE,65,6.0,11.0,45,0.00,,---,0.00,VWS V14.00,2013-05-08 17:48:00,
2013-05-08 13:50:00,78.2,55.1,29.94,ENE,58,7.0,11.0,45,0.00,,---,0.00,VWS V14.00,2013-05-08 17:50:00,
2013-05-08 13:53:00,78.7,55.6,29.94,ENE,63,6.0,11.0,45,0.00,,---,0.00,VWS V14.00,2013-05-08 17:53:00,
2013-05-08 13:54:00,78.7,55.6,29.94,ENE,69,7.0,11.0,45,0.00,,---,0.00,VWS V14.00,2013-05-08 17:54:00,
2013-05-08 13:56:00,79.1,56.0,29.94,NE,56,3.0,11.0,45,0.00,,---,0.00,VWS V14.00,2013-05-08 17:56:00,
2013-05-08 13:57:00,79.2,56.0,29.94,ENE,59,3.0,11.0,45,0.00,,---,0.00,VWS V14.00,2013-05-08 17:57:00,
2013-05-08 13:58:00,79.3,54.9,29.94,ENE,65,6.0,11.0,43,0.00,,---,0.00,VWS V14.00,2013-05-08 17:58:00,
2013-05-08 13:59:00,79.4,55.0,29.94,ENE,65,5.0,7.0,43,0.00,,---,0.00,VWS V14.00,2013-05-08 17:59:00,
2013-05-08 14:00:00,79.5,55.1,29.94,NE,36,7.0,7.0,43,0.00,,---,0.00,VWS V14.00,2013-05-08 18:00:00,
2013-05-08 14:03:00,79.7,55.9,29.94,NNE,28,3.0,9.0,44,0.00,,---,0.00,VWS V14.00,2013-05-08 18:03:00,
2013-05-08 14:04:00,79.7,55.2,29.94,NNE,22,5.0,9.0,43,0.00,,---,0.00,VWS V14.00,2013-05-08 18:04:00,
2013-05-08 14:06:00,79.7,53.9,29.94,North,360,4.0,11.0,41,0.00,,---,0.00,VWS V14.00,2013-05-08 18:06:00,
2013-05-08 14:09:00,79.7,53.9,29.94,ENE,65,3.0,11.0,41,0.00,,---,0.00,VWS V14.00,2013-05-08 18:09:00,
2013-05-08 14:10:00,79.6,53.2,29.94,ENE,66,2.0,11.0,40,0.00,,---,0.00,VWS V14.00,2013-05-08 18:10:00,
2013-05-08 14:11:00,79.6,53.2,29.94,ENE,67,3.0,11.0,40,0.00,,---,0.00,VWS V14.00,2013-05-08 18:11:00,
2013-05-08 14:15:00,79.7,54.6,29.94,NNW,329,5.0,11.0,42,0.00,,---,0.00,VWS V14.00,2013-05-08 18:15:00,
2013-05-08 14:17:00,80.1,54.3,29.94,NW,309,7.0,11.0,41,0.00,,---,0.00,VWS V14.00,2013-05-08 18:17:00,
2013-05-08 14:18:00,80.1,54.3,29.94,NNW,346,7.0,11.0,41,0.00,,---,0.00,VWS V14.00,2013-05-08 18:18:00,
2013-05-08 14:20:00,80.3,54.5,29.94,NNW,333,11.0,11.0,41,0.00,,---,0.00,VWS V14.00,2013-05-08 18:20:00,
2013-05-08 14:22:00,80.1,54.3,29.94,NW,322,9.0,11.0,41,0.00,,---,0.00,VWS V14.00,2013-05-08 18:22:00,
2013-05-08 14:24:00,79.7,53.3,29.94,NNW,329,7.0,13.0,40,0.00,,---,0.00,VWS V14.00,2013-05-08 18:24:00,
2013-05-08 14:28:00,78.9,53.2,29.94,NE,38,4.0,13.0,41,0.00,,---,0.00,VWS V14.00,2013-05-08 18:28:00,
2013-05-08 14:29:00,79.1,54.1,29.94,NNW,327,6.0,9.0,42,0.00,,---,0.00,VWS V14.00,2013-05-08 18:29:00,
2013-05-08 14:30:00,79.1,53.4,29.94,NW,311,6.0,9.0,41,0.00,,---,0.00,VWS V14.00,2013-05-08 18:30:00,
2013-05-08 14:32:00,79.2,53.5,29.94,North,355,7.0,10.0,41,0.00,,---,0.00,VWS V14.00,2013-05-08 18:32:00,
2013-05-08 14:34:00,79.2,53.5,29.94,NNW,337,9.0,11.0,41,0.00,,---,0.00,VWS V14.00,2013-05-08 18:34:00,
2013-05-08 14:37:00,79.5,53.8,29.93,NNE,30,6.0,11.0,41,0.00,,---,0.00,VWS V14.00,2013-05-08 18:37:00,
2013-05-08 14:38:00,79.8,54.0,29.93,NNE,21,7.0,11.0,41,0.00,,---,0.00,VWS V14.00,2013-05-08 18:38:00,
2013-05-08 14:39:00,79.9,53.5,29.93,NE,42,7.0,11.0,40,0.00,,---,0.00,VWS V14.00,2013-05-08 18:39:00,
2013-05-08 14:43:00,80.4,53.9,29.93,NNE,19,6.0,11.0,40,0.00,,---,0.00,VWS V14.00,2013-05-08 18:43:00,
2013-05-08 14:44:00,80.5,54.0,29.93,North,9,5.0,11.0,40,0.00,,---,0.00,VWS V14.00,2013-05-08 18:44:00,
2013-05-08 14:45:00,80.7,54.2,29.93,North,11,7.0,11.0,40,0.00,,---,0.00,VWS V14.00,2013-05-08 18:45:00,
2013-05-08 14:47:00,80.4,53.2,29.93,NNE,12,2.0,11.0,39,0.00,,---,0.00,VWS V14.00,2013-05-08 18:47:00,
2013-05-08 14:49:00,80.5,53.3,29.93,North,355,3.0,11.0,39,0.00,,---,0.00,VWS V14.00,2013-05-08 18:49:00,
2013-05-08 14:50:00,80.6,53.4,29.93,North,355,6.0,11.0,39,0.00,,---,0.00,VWS V14.00,2013-05-08 18:50:00,
2013-05-08 14:53:00,80.8,53.6,29.93,NNE,21,11.0,11.0,39,0.00,,---,0.00,VWS V14.00,2013-05-08 18:53:00,
2013-05-08 14:54:00,80.8,53.6,29.93,NNW,342,8.0,13.0,39,0.00,,---,0.00,VWS V14.00,2013-05-08 18:54:00,
2013-05-08 14:55:00,80.7,53.5,29.93,North,355,6.0,13.0,39,0.00,,---,0.00,VWS V14.00,2013-05-08 18:55:00,
2013-05-08 14:56:00,80.7,53.5,29.93,NNW,344,4.0,13.0,39,0.00,,---,0.00,VWS V14.00,2013-05-08 18:56:00,
2013-05-08 14:57:00,80.9,53.7,29.93,NNW,333,4.0,13.0,39,0.00,,---,0.00,VWS V14.00,2013-05-08 18:57:00,
2013-05-08 14:58:00,81.1,53.8,29.93,North,9,5.0,13.0,39,0.00,,---,0.00,VWS V14.00,2013-05-08 18:58:00,
2013-05-08 15:01:00,80.7,54.2,29.93,NE,53,6.0,7.0,40,0.00,,---,0.00,VWS V14.00,2013-05-08 19:01:00,
2013-05-08 15:02:00,80.7,54.2,29.93,NE,50,0.0,7.0,40,0.00,,---,0.00,VWS V14.00,2013-05-08 19:02:00,
2013-05-08 15:03:00,80.7,54.2,29.93,NNW,336,6.0,8.0,40,0.00,,---,0.00,VWS V14.00,2013-05-08 19:03:00,
2013-05-08 15:07:00,81.1,53.8,29.93,West,276,4.0,13.0,39,0.00,,---,0.00,VWS V14.00,2013-05-08 19:07:00,
2013-05-08 15:08:00,81.3,53.3,29.93,NW,306,3.0,13.0,38,0.00,,---,0.00,VWS V14.00,2013-05-08 19:08:00,
2013-05-08 15:13:00,81.8,53.7,29.93,WNW,292,9.0,13.0,38,0.00,,---,0.00,VWS V14.00,2013-05-08 19:13:00,
2013-05-08 15:15:00,82.1,53.3,29.92,WNW,296,3.0,13.0,37,0.00,,---,0.00,VWS V14.00,2013-05-08 19:15:00,
2013-05-08 15:16:00,82.2,53.4,29.92,WNW,295,5.0,13.0,37,0.00,,---,0.00,VWS V14.00,2013-05-08 19:16:00,
2013-05-08 15:17:00,82.4,53.5,29.92,WNW,292,5.0,13.0,37,0.00,,---,0.00,VWS V14.00,2013-05-08 19:17:00,
2013-05-08 15:19:00,82.8,53.9,29.92,WNW,293,5.0,13.0,37,0.00,,---,0.00,VWS V14.00,2013-05-08 19:19:00,
2013-05-08 15:21:00,82.9,53.2,29.92,WNW,285,2.0,13.0,36,0.00,,---,0.00,VWS V14.00,2013-05-08 19:21:00,
2013-05-08 15:22:00,82.8,53.2,29.92,NNW,344,10.0,13.0,36,0.00,,---,0.00,VWS V14.00,2013-05-08 19:22:00,
2013-05-08 15:23:00,82.8,53.2,29.92,North,360,6.0,13.0,36,0.00,,---,0.00,VWS V14.00,2013-05-08 19:23:00,
2013-05-08 15:24:00,82.4,52.8,29.92,NNE,13,4.0,13.0,36,0.00,,---,0.00,VWS V14.00,2013-05-08 19:24:00,
2013-05-08 15:27:00,82.1,53.3,29.92,North,355,3.0,13.0,37,0.00,,---,0.00,VWS V14.00,2013-05-08 19:27:00,
2013-05-08 15:28:00,82.1,53.3,29.92,North,355,2.0,13.0,37,0.00,,---,0.00,VWS V14.00,2013-05-08 19:28:00,
2013-05-08 15:30:00,82.1,53.3,29.92,North,355,2.0,7.0,37,0.00,,---,0.00,VWS V14.00,2013-05-08 19:30:00,
2013-05-08 15:31:00,82.2,53.4,29.92,North,355,4.0,7.0,37,0.00,,---,0.00,VWS V14.00,2013-05-08 19:31:00,
2013-05-08 15:33:00,82.3,53.5,29.92,North,350,1.0,7.0,37,0.00,,---,0.00,VWS V14.00,2013-05-08 19:33:00,
2013-05-08 15:34:00,82.3,53.5,29.92,NNW,341,0.0,7.0,37,0.00,,---,0.00,VWS V14.00,2013-05-08 19:34:00,
2013-05-08 15:36:00,82.1,53.3,29.92,ESE,122,6.0,7.0,37,0.00,,---,0.00,VWS V14.00,2013-05-08 19:36:00,
2013-05-08 15:37:00,81.8,53.0,29.92,ESE,117,0.0,7.0,37,0.00,,---,0.00,VWS V14.00,2013-05-08 19:37:00,
2013-05-08 15:39:00,81.5,52.7,29.91,WSW,250,10.0,12.0,37,0.00,,---,0.00,VWS V14.00,2013-05-08 19:39:00,
2013-05-08 15:41:00,81.8,53.7,29.91,NW,315,10.0,12.0,38,0.00,,---,0.00,VWS V14.00,2013-05-08 19:41:00,
2013-05-08 15:42:00,81.9,53.8,29.91,NW,305,10.0,12.0,38,0.00,,---,0.00,VWS V14.00,2013-05-08 19:42:00,
2013-05-08 15:43:00,82.3,53.5,29.91,WNW,294,3.0,12.0,37,0.00,,---,0.00,VWS V14.00,2013-05-08 19:43:00,
2013-05-08 15:44:00,82.3,53.5,29.91,NW,315,4.0,12.0,37,0.00,,---,0.00,VWS V14.00,2013-05-08 19:44:00,
2013-05-08 15:47:00,82.2,53.4,29.91,West,270,9.0,12.0,37,0.00,,---,0.00,VWS V14.00,2013-05-08 19:47:00,
2013-05-08 15:48:00,82.4,52.8,29.91,West,275,10.0,12.0,36,0.00,,---,0.00,VWS V14.00,2013-05-08 19:48:00,
2013-05-08 15:50:00,82.6,53.0,29.91,West,266,10.0,13.0,36,0.00,,---,0.00,VWS V14.00,2013-05-08 19:50:00,
2013-05-08 15:53:00,83.0,53.3,29.91,NW,313,6.0,13.0,36,0.00,,---,0.00,VWS V14.00,2013-05-08 19:53:00,
2013-05-08 15:54:00,83.1,53.4,29.91,WSW,252,9.0,13.0,36,0.00,,---,0.00,VWS V14.00,2013-05-08 19:54:00,
2013-05-08 15:57:00,83.8,54.0,29.91,West,267,3.0,13.0,36,0.00,,---,0.00,VWS V14.00,2013-05-08 19:57:00,
2013-05-08 15:59:00,83.5,53.8,29.91,North,360,5.0,8.0,36,0.00,,---,0.00,VWS V14.00,2013-05-08 19:59:00,
2013-05-08 16:00:00,83.4,53.7,29.91,North,360,1.0,8.0,36,0.00,,---,0.00,VWS V14.00,2013-05-08 20:00:00,
2013-05-08 16:01:00,83.4,53.7,29.91,North,360,4.0,8.0,36,0.00,,---,0.00,VWS V14.00,2013-05-08 20:01:00,
2013-05-08 16:02:00,83.1,53.4,29.91,WNW,299,5.0,8.0,36,0.00,,---,0.00,VWS V14.00,2013-05-08 20:02:00,
2013-05-08 16:04:00,83.3,53.6,29.91,NW,310,8.0,9.0,36,0.00,,---,0.00,VWS V14.00,2013-05-08 20:04:00,
2013-05-08 16:05:00,83.3,53.6,29.91,NW,308,3.0,9.0,36,0.00,,---,0.00,VWS V14.00,2013-05-08 20:05:00,
2013-05-08 16:06:00,83.2,53.5,29.91,NW,311,4.0,9.0,36,0.00,,---,0.00,VWS V14.00,2013-05-08 20:06:00,
2013-05-08 16:08:00,83.3,53.6,29.91,West,273,11.0,13.0,36,0.00,,---,0.00,VWS V14.00,2013-05-08 20:08:00,
2013-05-08 16:09:00,83.5,53.8,29.91,West,273,6.0,13.0,36,0.00,,---,0.00,VWS V14.00,2013-05-08 20:09:00,
2013-05-08 16:11:00,84.1,54.3,29.91,NW,307,5.0,13.0,36,0.00,,---,0.00,VWS V14.00,2013-05-08 20:11:00,
2013-05-08 16:14:00,84.0,53.4,29.91,NNE,14,6.0,13.0,35,0.00,,---,0.00,VWS V14.00,2013-05-08 20:14:00,
2013-05-08 16:15:00,83.6,53.8,29.91,North,11,2.0,13.0,36,0.00,,---,0.00,VWS V14.00,2013-05-08 20:15:00,
2013-05-08 16:16:00,83.4,53.7,29.91,North,355,5.0,13.0,36,0.00,,---,0.00,VWS V14.00,2013-05-08 20:16:00,
2013-05-08 16:18:00,83.1,54.2,29.91,NE,45,3.0,13.0,37,0.00,,---,0.00,VWS V14.00,2013-05-08 20:18:00,
2013-05-08 16:20:00,83.1,54.9,29.90,ENE,72,4.0,13.0,38,0.00,,---,0.00,VWS V14.00,2013-05-08 20:20:00,
2013-05-08 16:21:00,82.9,54.0,29.91,NNE,25,11.0,13.0,37,0.00,,---,0.00,VWS V14.00,2013-05-08 20:21:00,
2013-05-08 16:22:00,82.7,55.2,29.90,NE,34,7.0,13.0,39,0.00,,---,0.00,VWS V14.00,2013-05-08 20:22:00,
2013-05-08 16:24:00,82.7,54.5,29.90,NNE,28,9.0,13.0,38,0.00,,---,0.00,VWS V14.00,2013-05-08 20:24:00,
2013-05-08 16:25:00,82.7,54.5,29.90,NE,36,13.0,13.0,38,0.00,,---,0.00,VWS V14.00,2013-05-08 20:25:00,
2013-05-08 16:27:00,82.5,55.8,29.91,NNE,19,9.0,14.0,40,0.00,,---,0.00,VWS V14.00,2013-05-08 20:27:00,
2013-05-08 16:28:00,82.4,55.0,29.91,NE,40,11.0,15.0,39,0.00,,---,0.00,VWS V14.00,2013-05-08 20:28:00,
2013-05-08 16:29:00,82.0,53.9,29.91,North,11,7.0,14.0,38,0.00,,---,0.00,VWS V14.00,2013-05-08 20:29:00,
2013-05-08 16:30:00,81.8,54.5,29.91,NNE,24,11.0,14.0,39,0.00,,---,0.00,VWS V14.00,2013-05-08 20:30:00,
2013-05-08 16:32:00,81.1,54.5,29.91,NNE,28,11.0,14.0,40,0.00,,---,0.00,VWS V14.00,2013-05-08 20:32:00,
2013-05-08 16:34:00,80.3,53.1,29.91,NNE,14,2.0,14.0,39,0.00,,---,0.00,VWS V14.00,2013-05-08 20:34:00,
2013-05-08 16:35:00,80.2,53.0,29.91,NNE,14,3.0,14.0,39,0.00,,---,0.00,VWS V14.00,2013-05-08 20:35:00,
2013-05-08 16:36:00,79.9,53.5,29.91,North,355,7.0,14.0,40,0.00,,---,0.00,VWS V14.00,2013-05-08 20:36:00,
2013-05-08 16:37:00,79.8,52.7,29.91,North,349,6.0,14.0,39,0.00,,---,0.00,VWS V14.00,2013-05-08 20:37:00,
2013-05-08 16:38:00,79.7,53.3,29.91,North,355,6.0,14.0,40,0.00,,---,0.00,VWS V14.00,2013-05-08 20:38:00,
2013-05-08 16:40:00,79.6,53.2,29.90,North,350,7.0,14.0,40,0.00,,---,0.00,VWS V14.00,2013-05-08 20:40:00,
2013-05-08 16:43:00,79.3,54.9,29.91,NE,36,4.0,14.0,43,0.00,,---,0.00,VWS V14.00,2013-05-08 20:43:00,
2013-05-08 16:45:00,79.0,55.9,29.90,NE,35,5.0,14.0,45,0.00,,---,0.00,VWS V14.00,2013-05-08 20:45:00,
2013-05-08 16:46:00,79.1,55.3,29.90,NNE,26,4.0,14.0,44,0.00,,---,0.00,VWS V14.00,2013-05-08 20:46:00,
2013-05-08 16:47:00,79.0,55.2,29.90,NNE,24,4.0,14.0,44,0.00,,---,0.00,VWS V14.00,2013-05-08 20:47:00,
2013-05-08 16:48:00,79.0,54.6,29.90,NNE,17,6.0,14.0,43,0.00,,---,0.00,VWS V14.00,2013-05-08 20:48:00,
2013-05-08 16:51:00,79.1,53.4,29.90,NNE,17,2.0,14.0,41,0.00,,---,0.00,VWS V14.00,2013-05-08 20:51:00,
2013-05-08 16:53:00,79.2,52.8,29.90,NNE,13,5.0,14.0,40,0.00,,---,0.00,VWS V14.00,2013-05-08 20:53:00,
2013-05-08 16:55:00,79.3,52.9,29.90,North,355,5.0,14.0,40,0.00,,---,0.00,VWS V14.00,2013-05-08 20:55:00,
2013-05-08 16:57:00,79.4,53.0,29.90,NNW,333,6.0,14.0,40,0.00,,---,0.00,VWS V14.00,2013-05-08 20:57:00,
2013-05-08 16:58:00,79.4,52.3,29.90,NNW,334,4.0,14.0,39,0.00,,---,0.00,VWS V14.00,2013-05-08 20:58:00,
2013-05-08 17:01:00,79.6,52.5,29.90,NNW,343,6.0,7.0,39,0.00,,---,0.00,VWS V14.00,2013-05-08 21:01:00,
2013-05-08 17:02:00,79.7,52.6,29.90,NNW,347,6.0,7.0,39,0.00,,---,0.00,VWS V14.00,2013-05-08 21:02:00,
2013-05-08 17:03:00,79.6,52.5,29.90,NNW,347,1.0,7.0,39,0.00,,---,0.00,VWS V14.00,2013-05-08 21:03:00,
2013-05-08 17:04:00,79.6,52.5,29.90,NNW,347,0.0,7.0,39,0.00,,---,0.00,VWS V14.00,2013-05-08 21:04:00,
2013-05-08 17:07:00,80.0,53.5,29.90,NE,51,5.0,11.0,40,0.00,,---,0.00,VWS V14.00,2013-05-08 21:07:00,
2013-05-08 17:08:00,80.3,53.8,29.90,WNW,303,7.0,11.0,40,0.00,,---,0.00,VWS V14.00,2013-05-08 21:08:00,
2013-05-08 17:09:00,80.4,53.9,29.90,NW,323,6.0,11.0,40,0.00,,---,0.00,VWS V14.00,2013-05-08 21:09:00,
2013-05-08 17:10:00,80.7,53.5,29.90,NNW,341,7.0,11.0,39,0.00,,---,0.00,VWS V14.00,2013-05-08 21:10:00,
2013-05-08 17:14:00,80.9,52.9,29.90,NW,306,5.0,11.0,38,0.00,,---,0.00,VWS V14.00,2013-05-08 21:14:00,
2013-05-08 17:15:00,81.0,53.0,29.90,NW,307,5.0,11.0,38,0.00,,---,0.00,VWS V14.00,2013-05-08 21:15:00,
2013-05-08 17:18:00,81.0,53.0,29.90,NW,319,3.0,11.0,38,0.00,,---,0.00,VWS V14.00,2013-05-08 21:18:00,
2013-05-08 17:19:00,81.0,53.0,29.90,NW,319,2.0,11.0,38,0.00,,---,0.00,VWS V14.00,2013-05-08 21:19:00,
2013-05-08 17:20:00,81.0,53.0,29.90,NW,319,3.0,11.0,38,0.00,,---,0.00,VWS V14.00,2013-05-08 21:20:00,
2013-05-08 17:21:00,81.1,53.1,29.90,NW,304,5.0,11.0,38,0.00,,---,0.00,VWS V14.00,2013-05-08 21:21:00,
2013-05-08 17:24:00,81.4,53.4,29.89,WNW,296,8.0,11.0,38,0.00,,---,0.00,VWS V14.00,2013-05-08 21:24:00,
2013-05-08 17:25:00,81.5,53.5,29.90,NW,306,6.0,11.0,38,0.00,,---,0.00,VWS V14.00,2013-05-08 21:25:00,
2013-05-08 17:26:00,81.3,54.0,29.90,NNE,24,12.0,13.0,39,0.00,,---,0.00,VWS V14.00,2013-05-08 21:26:00,
2013-05-08 17:28:00,81.0,53.7,29.90,North,360,5.0,13.0,39,0.00,,---,0.00,VWS V14.00,2013-05-08 21:28:00,
2013-05-08 17:30:00,80.8,54.2,29.90,NW,323,9.0,12.0,40,0.00,,---,0.00,VWS V14.00,2013-05-08 21:30:00,
2013-05-08 17:31:00,80.7,54.2,29.90,NW,310,10.0,13.0,40,0.00,,---,0.00,VWS V14.00,2013-05-08 21:31:00,
2013-05-08 17:32:00,80.7,54.2,29.90,NW,309,6.0,13.0,40,0.00,,---,0.00,VWS V14.00,2013-05-08 21:32:00,
2013-05-08 17:33:00,80.7,54.2,29.90,NNW,346,5.0,13.0,40,0.00,,---,0.00,VWS V14.00,2013-05-08 21:33:00,
2013-05-08 17:35:00,80.5,54.0,29.90,NNW,348,5.0,13.0,40,0.00,,---,0.00,VWS V14.00,2013-05-08 21:35:00,
2013-05-08 17:36:00,80.4,53.9,29.90,NW,326,5.0,13.0,40,0.00,,---,0.00,VWS V14.00,2013-05-08 21:36:00,
2013-05-08 17:37:00,80.3,54.5,29.90,NNE,30,10.0,13.0,41,0.00,,---,0.00,VWS V14.00,2013-05-08 21:37:00,
2013-05-08 17:39:00,80.0,55.5,29.90,NE,46,4.0,13.0,43,0.00,,---,0.00,VWS V14.00,2013-05-08 21:39:00,
2013-05-08 17:42:00,79.8,55.3,29.90,North,5,8.0,13.0,43,0.00,,---,0.00,VWS V14.00,2013-05-08 21:42:00,
2013-05-08 17:43:00,79.9,54.8,29.90,NNE,13,9.0,13.0,42,0.00,,---,0.00,VWS V14.00,2013-05-08 21:43:00,
2013-05-08 17:44:00,80.0,54.2,29.90,North,9,3.0,13.0,41,0.00,,---,0.00,VWS V14.00,2013-05-08 21:44:00,
2013-05-08 17:46:00,80.1,54.3,29.90,NE,37,9.0,13.0,41,0.00,,---,0.00,VWS V14.00,2013-05-08 21:46:00,
2013-05-08 17:49:00,79.9,56.1,29.90,NNE,18,5.0,13.0,44,0.00,,---,0.00,VWS V14.00,2013-05-08 21:49:00,
2013-05-08 17:50:00,79.9,55.4,29.90,NE,44,5.0,13.0,43,0.00,,---,0.00,VWS V14.00,2013-05-08 21:50:00,
2013-05-08 17:51:00,79.8,55.3,29.90,NE,46,7.0,13.0,43,0.00,,---,0.00,VWS V14.00,2013-05-08 21:51:00,
2013-05-08 17:54:00,79.4,54.3,29.90,NE,56,4.0,13.0,42,0.00,,---,0.00,VWS V14.00,2013-05-08 21:54:00,
2013-05-08 17:55:00,79.3,55.5,29.90,ENE,57,4.0,13.0,44,0.00,,---,0.00,VWS V14.00,2013-05-08 21:55:00,
2013-05-08 17:56:00,79.2,56.0,29.90,ENE,59,4.0,13.0,45,0.00,,---,0.00,VWS V14.00,2013-05-08 21:56:00,
2013-05-08 17:58:00,78.9,55.2,29.90,ENE,59,2.0,13.0,44,0.00,,---,0.00,VWS V14.00,2013-05-08 21:58:00,
2013-05-08 18:00:00,78.6,55.5,29.90,East,94,4.0,6.0,45,0.00,,---,0.00,VWS V14.00,2013-05-08 22:00:00,
2013-05-08 18:03:00,78.2,55.1,29.90,East,99,4.0,6.0,45,0.00,,---,0.00,VWS V14.00,2013-05-08 22:03:00,
2013-05-08 18:04:00,78.0,55.6,29.90,ESE,117,2.0,7.0,46,0.00,,---,0.00,VWS V14.00,2013-05-08 22:04:00,
2013-05-08 18:05:00,77.9,57.8,29.90,ESE,118,0.0,7.0,50,0.00,,---,0.00,VWS V14.00,2013-05-08 22:05:00,
2013-05-08 18:06:00,77.7,56.5,29.90,ESE,118,3.0,7.0,48,0.00,,---,0.00,VWS V14.00,2013-05-08 22:06:00,
2013-05-08 18:08:00,77.4,57.3,29.90,ESE,119,2.0,7.0,50,0.00,,---,0.00,VWS V14.00,2013-05-08 22:08:00,
2013-05-08 18:11:00,77.0,59.1,29.90,ESE,119,0.0,7.0,54,0.00,,---,0.00,VWS V14.00,2013-05-08 22:11:00,
2013-05-08 18:12:00,76.8,59.4,29.90,ESE,119,0.0,7.0,55,0.00,,---,0.00,VWS V14.00,2013-05-08 22:12:00,
2013-05-08 18:13:00,76.5,58.1,29.90,ESE,120,0.0,7.0,53,0.00,,---,0.00,VWS V14.00,2013-05-08 22:13:00,
2013-05-08 18:16:00,76.1,58.3,29.90,SE,129,4.0,7.0,54,0.00,,---,0.00,VWS V14.00,2013-05-08 22:16:00,
2013-05-08 18:17:00,75.9,58.6,29.90,SE,129,3.0,7.0,55,0.00,,---,0.00,VWS V14.00,2013-05-08 22:17:00,
2013-05-08 18:19:00,75.5,58.2,29.90,SE,129,0.0,7.0,55,0.00,,---,0.00,VWS V14.00,2013-05-08 22:19:00,
2013-05-08 18:22:00,75.2,59.4,29.91,SE,129,0.0,7.0,58,0.00,,---,0.00,VWS V14.00,2013-05-08 22:22:00,
2013-05-08 18:24:00,75.0,59.2,29.91,SSW,199,5.0,7.0,58,0.00,,---,0.00,VWS V14.00,2013-05-08 22:24:00,
2013-05-08 18:26:00,74.7,58.5,29.91,SW,215,3.0,7.0,57,0.00,,---,0.00,VWS V14.00,2013-05-08 22:26:00,
2013-05-08 18:27:00,74.5,58.3,29.91,SW,215,0.0,7.0,57,0.00,,---,0.00,VWS V14.00,2013-05-08 22:27:00,
2013-05-08 18:28:00,74.3,57.6,29.91,SW,214,1.0,7.0,56,0.00,,---,0.00,VWS V14.00,2013-05-08 22:28:00,
2013-05-08 18:29:00,74.3,57.6,29.90,SW,215,3.0,4.0,56,0.00,,---,0.00,VWS V14.00,2013-05-08 22:29:00,
2013-05-08 18:31:00,73.9,58.7,29.90,SW,226,1.0,6.0,59,0.00,,---,0.00,VWS V14.00,2013-05-08 22:31:00,
2013-05-08 18:34:00,73.5,59.2,29.91,SW,227,5.0,6.0,61,0.00,,---,0.00,VWS V14.00,2013-05-08 22:34:00,
2013-05-08 18:35:00,73.4,58.7,29.91,West,259,4.0,7.0,60,0.00,,---,0.00,VWS V14.00,2013-05-08 22:35:00,
2013-05-08 18:36:00,73.2,58.0,29.91,West,259,4.0,7.0,59,0.00,,---,0.00,VWS V14.00,2013-05-08 22:36:00,
2013-05-08 18:38:00,72.8,58.1,29.91,West,260,3.0,7.0,60,0.00,,---,0.00,VWS V14.00,2013-05-08 22:38:00,
2013-05-08 18:39:00,72.6,57.9,29.92,West,260,1.0,7.0,60,0.00,,---,0.00,VWS V14.00,2013-05-08 22:39:00,
2013-05-08 18:40:00,72.6,57.9,29.92,West,260,1.0,7.0,60,0.00,,---,0.00,VWS V14.00,2013-05-08 22:40:00,
2013-05-08 18:41:00,72.5,58.3,29.92,West,260,2.0,7.0,61,0.00,,---,0.00,VWS V14.00,2013-05-08 22:41:00,
2013-05-08 18:43:00,72.3,57.7,29.92,West,260,1.0,7.0,60,0.00,,---,0.00,VWS V14.00,2013-05-08 22:43:00,
2013-05-08 18:44:00,72.3,57.7,29.92,West,260,0.0,7.0,60,0.00,,---,0.00,VWS V14.00,2013-05-08 22:44:00,
2013-05-08 18:47:00,72.2,57.1,29.92,West,259,2.0,7.0,59,0.00,,---,0.00,VWS V14.00,2013-05-08 22:47:00,
2013-05-08 18:49:00,72.3,57.2,29.92,WSW,255,6.0,7.0,59,0.00,,---,0.00,VWS V14.00,2013-05-08 22:49:00,
2013-05-08 18:50:00,72.3,57.7,29.92,WSW,256,3.0,7.0,60,0.00,,---,0.00,VWS V14.00,2013-05-08 22:50:00,
2013-05-08 18:52:00,72.4,56.3,29.92,NW,315,9.0,14.0,57,0.00,,---,0.00,VWS V14.00,2013-05-08 22:52:00,
2013-05-08 18:54:00,72.5,56.4,29.92,NNW,346,6.0,14.0,57,0.00,,---,0.00,VWS V14.00,2013-05-08 22:54:00,
2013-05-08 18:55:00,72.5,56.4,29.92,NNW,344,10.0,14.0,57,0.00,,---,0.00,VWS V14.00,2013-05-08 22:55:00,
2013-05-08 18:56:00,72.5,56.4,29.92,NE,42,7.0,14.0,57,0.00,,---,0.00,VWS V14.00,2013-05-08 22:56:00,
2013-05-08 18:58:00,72.5,56.4,29.92,NE,44,6.0,14.0,57,0.00,,---,0.00,VWS V14.00,2013-05-08 22:58:00,
2013-05-08 19:00:00,71.9,57.3,29.92,East,88,3.0,11.0,60,0.01,,---,0.01,VWS V14.00,2013-05-08 23:00:00,
2013-05-08 19:01:00,71.7,57.1,29.92,East,84,11.0,11.0,60,0.01,,---,0.01,VWS V14.00,2013-05-08 23:01:00,
2013-05-08 19:03:00,70.8,56.7,29.92,East,98,7.0,12.0,61,0.01,,---,0.01,VWS V14.00,2013-05-08 23:03:00,
2013-05-08 19:06:00,69.4,57.1,29.92,ESE,118,4.0,12.0,65,0.02,,---,0.02,VWS V14.00,2013-05-08 23:06:00,
2013-05-08 19:07:00,68.9,57.5,29.93,East,86,5.0,12.0,67,0.02,,---,0.02,VWS V14.00,2013-05-08 23:07:00,
2013-05-08 19:08:00,68.7,57.3,29.93,ENE,76,9.0,12.0,67,0.02,,---,0.02,VWS V14.00,2013-05-08 23:08:00,
2013-05-08 19:09:00,68.3,57.8,29.93,ENE,78,4.0,12.0,69,0.02,,---,0.02,VWS V14.00,2013-05-08 23:09:00,
2013-05-08 19:11:00,67.7,57.6,29.93,SE,137,7.0,12.0,70,0.02,,---,0.02,VWS V14.00,2013-05-08 23:11:00,
2013-05-08 19:13:00,67.3,56.4,29.93,SE,129,6.0,13.0,68,0.02,,---,0.02,VWS V14.00,2013-05-08 23:13:00,
2013-05-08 19:14:00,67.3,57.2,29.93,SE,134,10.0,13.0,70,0.02,,---,0.02,VWS V14.00,2013-05-08 23:14:00,
2013-05-08 19:15:00,67.1,57.4,29.93,SE,141,12.0,13.0,71,0.02,,---,0.02,VWS V14.00,2013-05-08 23:15:00,
2013-05-08 19:16:00,66.9,57.6,29.93,SSE,149,7.0,13.0,72,0.02,,---,0.02,VWS V14.00,2013-05-08 23:16:00,
2013-05-08 19:18:00,67.0,57.7,29.93,SE,144,6.0,13.0,72,0.02,,---,0.02,VWS V14.00,2013-05-08 23:18:00,
2013-05-08 19:19:00,67.1,57.8,29.93,SE,142,7.0,13.0,72,0.02,,---,0.02,VWS V14.00,2013-05-08 23:19:00,
2013-05-08 19:20:00,67.2,57.9,29.93,SSE,147,9.0,13.0,72,0.02,,---,0.02,VWS V14.00,2013-05-08 23:20:00,
2013-05-08 19:22:00,67.4,57.3,29.93,SSE,152,12.0,13.0,70,0.02,,---,0.02,VWS V14.00,2013-05-08 23:22:00,
2013-05-08 19:25:00,67.6,56.7,29.93,SSE,150,10.0,13.0,68,0.02,,---,0.02,VWS V14.00,2013-05-08 23:25:00,
2013-05-08 19:26:00,67.6,56.3,29.93,SSE,168,10.0,13.0,67,0.02,,---,0.02,VWS V14.00,2013-05-08 23:26:00,
2013-05-08 19:27:00,67.6,56.3,29.93,SSE,159,9.0,13.0,67,0.02,,---,0.02,VWS V14.00,2013-05-08 23:27:00,
2013-05-08 19:28:00,67.6,56.3,29.93,SSE,159,10.0,13.0,67,0.02,,---,0.02,VWS V14.00,2013-05-08 23:28:00,
2013-05-08 19:30:00,67.6,56.3,29.93,SSE,160,7.0,12.0,67,0.02,,---,0.02,VWS V14.00,2013-05-08 23:30:00,
2013-05-08 19:31:00,67.8,56.9,29.93,South,179,7.0,12.0,68,0.02,,---,0.02,VWS V14.00,2013-05-08 23:31:00,
2013-05-08 19:32:00,68.0,57.9,29.93,South,190,4.0,12.0,70,0.02,,---,0.02,VWS V14.00,2013-05-08 23:32:00,
2013-05-08 19:33:00,68.1,58.3,29.93,South,188,5.0,12.0,71,0.02,,---,0.02,VWS V14.00,2013-05-08 23:33:00,
2013-05-08 19:35:00,68.1,58.7,29.93,SSE,168,7.0,12.0,72,0.02,,---,0.02,VWS V14.00,2013-05-08 23:35:00,
2013-05-08 19:37:00,68.2,58.8,29.93,South,178,2.0,12.0,72,0.02,,---,0.02,VWS V14.00,2013-05-08 23:37:00,
2013-05-08 19:39:00,68.2,58.8,29.93,South,181,3.0,12.0,72,0.02,,---,0.02,VWS V14.00,2013-05-08 23:39:00,
2013-05-08 19:41:00,68.2,58.5,29.93,South,186,3.0,12.0,71,0.02,,---,0.02,VWS V14.00,2013-05-08 23:41:00,
2013-05-08 19:42:00,68.1,58.3,29.93,WSW,237,4.0,12.0,71,0.02,,---,0.02,VWS V14.00,2013-05-08 23:42:00,
2013-05-08 19:43:00,68.1,58.0,29.93,WSW,242,5.0,12.0,70,0.02,,---,0.02,VWS V14.00,2013-05-08 23:43:00,
2013-05-08 19:45:00,68.1,57.6,29.93,WSW,243,2.0,12.0,69,0.02,,---,0.02,VWS V14.00,2013-05-08 23:45:00,
2013-05-08 19:47:00,68.0,57.5,29.93,WSW,242,1.0,12.0,69,0.02,,---,0.02,VWS V14.00,2013-05-08 23:47:00,
2013-05-08 19:49:00,68.1,57.6,29.93,WSW,242,3.0,12.0,69,0.02,,---,0.02,VWS V14.00,2013-05-08 23:49:00,
2013-05-08 19:50:00,68.1,57.6,29.93,WSW,242,4.0,12.0,69,0.02,,---,0.02,VWS V14.00,2013-05-08 23:50:00,
2013-05-08 19:51:00,68.1,57.6,29.93,WSW,242,0.0,12.0,69,0.02,,---,0.02,VWS V14.00,2013-05-08 23:51:00,
2013-05-08 19:52:00,68.2,57.7,29.93,WSW,241,1.0,12.0,69,0.02,,---,0.02,VWS V14.00,2013-05-08 23:52:00,
2013-05-08 19:54:00,68.3,57.8,29.93,WSW,241,4.0,12.0,69,0.02,,---,0.02,VWS V14.00,2013-05-08 23:54:00,
2013-05-08 19:55:00,68.3,57.8,29.93,WSW,241,2.0,12.0,69,0.02,,---,0.02,VWS V14.00,2013-05-08 23:55:00,
2013-05-08 19:56:00,68.3,57.3,29.93,WSW,242,5.0,12.0,68,0.02,,---,0.02,VWS V14.00,2013-05-08 23:56:00,
2013-05-08 20:00:00,68.3,57.3,29.92,WSW,254,4.0,6.0,68,0.02,,---,0.02,VWS V14.00,2013-05-09 00:00:00,
2013-05-08 20:01:00,68.3,57.3,29.92,WSW,254,2.0,6.0,68,0.02,,---,0.02,VWS V14.00,2013-05-09 00:01:00,
2013-05-08 20:02:00,68.3,57.3,29.92,WSW,253,0.0,6.0,68,0.02,,---,0.02,VWS V14.00,2013-05-09 00:02:00,
2013-05-08 20:06:00,68.2,57.2,29.92,WSW,253,5.0,6.0,68,0.02,,---,0.02,VWS V14.00,2013-05-09 00:06:00,
2013-05-08 20:08:00,68.2,57.2,29.92,WSW,253,5.0,7.0,68,0.02,,---,0.02,VWS V14.00,2013-05-09 00:08:00,
2013-05-08 20:10:00,68.1,57.6,29.92,WSW,252,1.0,7.0,69,0.02,,---,0.02,VWS V14.00,2013-05-09 00:10:00,
2013-05-08 20:12:00,67.9,57.8,29.92,WSW,252,2.0,7.0,70,0.02,,---,0.02,VWS V14.00,2013-05-09 00:12:00,
2013-05-08 20:13:00,67.9,57.8,29.92,WSW,252,3.0,7.0,70,0.02,,---,0.02,VWS V14.00,2013-05-09 00:13:00,
2013-05-08 20:15:00,67.8,58.1,29.92,WSW,251,6.0,7.0,71,0.02,,---,0.02,VWS V14.00,2013-05-09 00:15:00,
2013-05-08 20:16:00,67.8,58.1,29.92,WSW,252,3.0,7.0,71,0.02,,---,0.02,VWS V14.00,2013-05-09 00:16:00,
2013-05-08 20:17:00,67.7,58.0,29.92,WSW,250,4.0,7.0,71,0.02,,---,0.02,VWS V14.00,2013-05-09 00:17:00,
2013-05-08 20:18:00,67.7,58.0,29.92,WSW,251,3.0,7.0,71,0.02,,---,0.02,VWS V14.00,2013-05-09 00:18:00,
2013-05-08 20:21:00,67.5,57.8,29.92,WSW,251,3.0,7.0,71,0.02,,---,0.02,VWS V14.00,2013-05-09 00:21:00,
2013-05-08 20:23:00,67.4,57.7,29.92,WSW,250,5.0,7.0,71,0.02,,---,0.02,VWS V14.00,2013-05-09 00:23:00,
2013-05-08 20:24:00,67.3,57.6,29.92,WSW,250,3.0,7.0,71,0.02,,---,0.02,VWS V14.00,2013-05-09 00:24:00,
2013-05-08 20:27:00,67.1,57.8,29.92,WSW,251,1.0,7.0,72,0.02,,---,0.02,VWS V14.00,2013-05-09 00:27:00,
2013-05-08 20:29:00,67.0,57.7,29.92,WSW,251,3.0,4.0,72,0.00,,---,0.02,VWS V14.00,2013-05-09 00:29:00,
2013-05-08 20:30:00,66.9,58.0,29.92,WSW,251,4.0,5.0,73,0.00,,---,0.02,VWS V14.00,2013-05-09 00:30:00,
2013-05-08 20:31:00,66.8,57.9,29.92,WSW,251,5.0,5.0,73,0.00,,---,0.02,VWS V14.00,2013-05-09 00:31:00,
2013-05-08 20:32:00,66.8,57.9,29.92,WSW,251,4.0,5.0,73,0.00,,---,0.02,VWS V14.00,2013-05-09 00:32:00,
2013-05-08 20:34:00,66.7,57.8,29.92,WSW,250,3.0,5.0,73,0.00,,---,0.02,VWS V14.00,2013-05-09 00:34:00,
2013-05-08 20:35:00,66.7,57.8,29.92,WSW,251,3.0,5.0,73,0.00,,---,0.02,VWS V14.00,2013-05-09 00:35:00,
2013-05-08 20:38:00,66.5,57.6,29.92,WSW,250,3.0,5.0,73,0.00,,---,0.02,VWS V14.00,2013-05-09 00:38:00,
2013-05-08 20:40:00,66.5,57.6,29.92,WSW,251,2.0,5.0,73,0.00,,---,0.02,VWS V14.00,2013-05-09 00:40:00,
2013-05-08 20:42:00,66.4,57.5,29.92,WSW,251,3.0,5.0,73,0.00,,---,0.02,VWS V14.00,2013-05-09 00:42:00,
2013-05-08 20:43:00,66.4,57.5,29.92,WSW,251,3.0,5.0,73,0.00,,---,0.02,VWS V14.00,2013-05-09 00:43:00,
2013-05-08 20:45:00,66.3,57.4,29.92,WSW,251,3.0,5.0,73,0.00,,---,0.02,VWS V14.00,2013-05-09 00:45:00,
2013-05-08 20:46:00,66.2,57.3,29.92,WSW,250,3.0,5.0,73,0.00,,---,0.02,VWS V14.00,2013-05-09 00:46:00,
2013-05-08 20:48:00,66.2,57.3,29.92,WSW,252,5.0,6.0,73,0.00,,---,0.02,VWS V14.00,2013-05-09 00:48:00,
2013-05-08 20:49:00,66.1,57.2,29.92,WSW,252,2.0,6.0,73,0.00,,---,0.02,VWS V14.00,2013-05-09 00:49:00,
2013-05-08 20:50:00,66.1,56.8,29.92,WSW,252,3.0,6.0,72,0.00,,---,0.02,VWS V14.00,2013-05-09 00:50:00,
2013-05-08 20:51:00,66.1,56.8,29.92,WSW,252,4.0,6.0,72,0.00,,---,0.02,VWS V14.00,2013-05-09 00:51:00,
2013-05-08 20:54:00,66.0,56.7,29.92,WSW,252,3.0,6.0,72,0.00,,---,0.02,VWS V14.00,2013-05-09 00:54:00,
2013-05-08 20:57:00,66.0,57.1,29.92,WSW,252,2.0,6.0,73,0.00,,---,0.02,VWS V14.00,2013-05-09 00:57:00,
2013-05-08 20:58:00,66.0,57.1,29.93,WSW,252,2.0,6.0,73,0.00,,---,0.02,VWS V14.00,2013-05-09 00:58:00,
2013-05-08 20:59:00,66.0,57.1,29.92,WSW,252,3.0,3.0,73,0.00,,---,0.02,VWS V14.00,2013-05-09 00:59:00,
2013-05-08 21:00:00,66.0,57.1,29.92,WSW,252,2.0,4.0,73,0.00,,---,0.02,VWS V14.00,2013-05-09 01:00:00,
2013-05-08 21:01:00,66.0,57.1,29.92,WSW,252,3.0,4.0,73,0.00,,---,0.02,VWS V14.00,2013-05-09 01:01:00,
2013-05-08 21:02:00,66.0,57.1,29.92,WSW,252,3.0,4.0,73,0.00,,---,0.02,VWS V14.00,2013-05-09 01:02:00,
2013-05-08 21:03:00,65.9,57.0,29.92,WSW,252,2.0,4.0,73,0.00,,---,0.02,VWS V14.00,2013-05-09 01:03:00,
2013-05-08 21:05:00,65.9,57.0,29.92,WSW,252,3.0,4.0,73,0.00,,---,0.02,VWS V14.00,2013-05-09 01:05:00,
2013-05-08 21:06:00,65.8,56.9,29.92,WSW,252,2.0,4.0,73,0.00,,---,0.02,VWS V14.00,2013-05-09 01:06:00,
2013-05-08 21:08:00,65.8,57.3,29.92,WSW,252,0.0,4.0,74,0.00,,---,0.02,VWS V14.00,2013-05-09 01:08:00,
2013-05-08 21:09:00,65.8,57.3,29.92,WSW,252,1.0,4.0,74,0.00,,---,0.02,VWS V14.00,2013-05-09 01:09:00,
2013-05-08 21:10:00,65.7,57.2,29.92,WSW,252,1.0,4.0,74,0.00,,---,0.02,VWS V14.00,2013-05-09 01:10:00,
2013-05-08 21:12:00,65.6,57.1,29.92,WSW,252,0.0,4.0,74,0.00,,---,0.02,VWS V14.00,2013-05-09 01:12:00,
2013-05-08 21:14:00,65.6,57.1,29.92,WSW,252,0.0,4.0,74,0.00,,---,0.02,VWS V14.00,2013-05-09 01:14:00,
2013-05-08 21:16:00,65.5,57.0,29.92,WSW,252,1.0,4.0,74,0.00,,---,0.02,VWS V14.00,2013-05-09 01:16:00,
2013-05-08 21:18:00,65.4,56.9,29.92,WSW,252,0.0,4.0,74,0.00,,---,0.02,VWS V14.00,2013-05-09 01:18:00,
2013-05-08 21:19:00,65.4,57.3,29.92,WSW,252,0.0,4.0,75,0.00,,---,0.02,VWS V14.00,2013-05-09 01:19:00,
2013-05-08 21:22:00,65.4,57.3,29.92,WSW,252,0.0,4.0,75,0.00,,---,0.02,VWS V14.00,2013-05-09 01:22:00,
2013-05-08 21:23:00,65.4,57.3,29.92,WSW,252,0.0,4.0,75,0.00,,---,0.02,VWS V14.00,2013-05-09 01:23:00,
2013-05-08 21:24:00,65.3,57.2,29.92,WSW,252,1.0,4.0,75,0.00,,---,0.02,VWS V14.00,2013-05-09 01:24:00,
2013-05-08 21:25:00,65.3,57.2,29.92,WSW,252,1.0,4.0,75,0.00,,---,0.02,VWS V14.00,2013-05-09 01:25:00,
2013-05-08 21:28:00,65.2,57.1,29.92,WSW,252,3.0,4.0,75,0.00,,---,0.02,VWS V14.00,2013-05-09 01:28:00,
2013-05-08 21:29:00,65.2,57.1,29.92,WSW,252,3.0,3.0,75,0.00,,---,0.02,VWS V14.00,2013-05-09 01:29:00,
2013-05-08 21:31:00,65.2,57.1,29.92,WSW,252,1.0,3.0,75,0.00,,---,0.02,VWS V14.00,2013-05-09 01:31:00,
2013-05-08 21:32:00,65.2,57.1,29.92,WSW,252,0.0,3.0,75,0.00,,---,0.02,VWS V14.00,2013-05-09 01:32:00,
2013-05-08 21:33:00,65.1,57.0,29.92,WSW,252,0.0,3.0,75,0.00,,---,0.02,VWS V14.00,2013-05-09 01:33:00,
2013-05-08 21:34:00,65.0,57.3,29.92,WSW,252,1.0,3.0,76,0.00,,---,0.02,VWS V14.00,2013-05-09 01:34:00,
2013-05-08 21:35:00,65.0,57.3,29.92,WSW,252,1.0,3.0,76,0.00,,---,0.02,VWS V14.00,2013-05-09 01:35:00,
2013-05-08 21:37:00,65.0,56.9,29.92,WSW,252,1.0,3.0,75,0.00,,---,0.02,VWS V14.00,2013-05-09 01:37:00,
2013-05-08 21:38:00,64.9,56.8,29.92,WSW,252,1.0,3.0,75,0.00,,---,0.02,VWS V14.00,2013-05-09 01:38:00,
2013-05-08 21:40:00,64.9,56.8,29.92,WSW,252,0.0,3.0,75,0.00,,---,0.02,VWS V14.00,2013-05-09 01:40:00,
2013-05-08 21:43:00,64.9,56.4,29.93,WSW,252,2.0,3.0,74,0.00,,---,0.02,VWS V14.00,2013-05-09 01:43:00,
2013-05-08 21:44:00,64.9,56.4,29.93,WSW,252,1.0,3.0,74,0.00,,---,0.02,VWS V14.00,2013-05-09 01:44:00,
2013-05-08 21:45:00,64.9,56.4,29.93,WSW,252,1.0,3.0,74,0.00,,---,0.02,VWS V14.00,2013-05-09 01:45:00,
2013-05-08 21:46:00,64.9,56.4,29.93,WSW,252,2.0,3.0,74,0.00,,---,0.02,VWS V14.00,2013-05-09 01:46:00,
2013-05-08 21:48:00,64.9,56.4,29.93,WSW,252,2.0,3.0,74,0.00,,---,0.02,VWS V14.00,2013-05-09 01:48:00,
2013-05-08 21:49:00,64.9,56.4,29.93,WSW,252,1.0,3.0,74,0.00,,---,0.02,VWS V14.00,2013-05-09 01:49:00,
2013-05-08 21:50:00,64.8,56.3,29.92,WSW,252,2.0,3.0,74,0.00,,---,0.02,VWS V14.00,2013-05-09 01:50:00,
2013-05-08 21:51:00,64.8,56.3,29.93,WSW,252,1.0,3.0,74,0.00,,---,0.02,VWS V14.00,2013-05-09 01:51:00,
2013-05-08 21:52:00,64.8,56.3,29.93,WSW,252,1.0,3.0,74,0.00,,---,0.02,VWS V14.00,2013-05-09 01:52:00,
2013-05-08 21:53:00,64.7,56.6,29.93,WSW,252,1.0,3.0,75,0.00,,---,0.02,VWS V14.00,2013-05-09 01:53:00,
2013-05-08 21:55:00,64.7,56.6,29.93,WSW,252,1.0,3.0,75,0.00,,---,0.02,VWS V14.00,2013-05-09 01:55:00,
2013-05-08 21:56:00,64.6,56.9,29.93,WSW,252,1.0,3.0,76,0.00,,---,0.02,VWS V14.00,2013-05-09 01:56:00,
2013-05-08 21:57:00,64.5,56.8,29.93,WSW,252,1.0,3.0,76,0.00,,---,0.02,VWS V14.00,2013-05-09 01:57:00,
2013-05-08 21:59:00,64.4,56.7,29.93,WSW,252,1.0,2.0,76,0.00,,---,0.02,VWS V14.00,2013-05-09 01:59:00,
2013-05-08 22:01:00,64.3,57.0,29.93,WSW,252,2.0,2.0,77,0.00,,---,0.02,VWS V14.00,2013-05-09 02:01:00,
2013-05-08 22:02:00,64.1,56.8,29.93,WSW,252,1.0,2.0,77,0.00,,---,0.02,VWS V14.00,2013-05-09 02:02:00,
2013-05-08 22:04:00,64.0,56.7,29.93,WSW,252,2.0,2.0,77,0.00,,---,0.02,VWS V14.00,2013-05-09 02:04:00,
2013-05-08 22:06:00,63.9,56.9,29.93,WSW,252,1.0,2.0,78,0.00,,---,0.02,VWS V14.00,2013-05-09 02:06:00,
2013-05-08 22:08:00,63.8,56.8,29.93,WSW,252,0.0,2.0,78,0.00,,---,0.02,VWS V14.00,2013-05-09 02:08:00,
2013-05-08 22:09:00,63.7,56.7,29.93,WSW,252,0.0,2.0,78,0.00,,---,0.02,VWS V14.00,2013-05-09 02:09:00,
2013-05-08 22:10:00,63.7,57.1,29.93,WSW,252,0.0,2.0,79,0.00,,---,0.02,VWS V14.00,2013-05-09 02:10:00,
2013-05-08 22:12:00,63.5,56.9,29.93,WSW,252,1.0,2.0,79,0.00,,---,0.02,VWS V14.00,2013-05-09 02:12:00,
2013-05-08 22:15:00,63.4,56.8,29.93,WSW,252,0.0,2.0,79,0.00,,---,0.02,VWS V14.00,2013-05-09 02:15:00,
2013-05-08 22:16:00,63.3,56.7,29.93,WSW,252,0.0,2.0,79,0.00,,---,0.02,VWS V14.00,2013-05-09 02:16:00,
2013-05-08 22:17:00,63.3,56.7,29.93,WSW,252,0.0,2.0,79,0.00,,---,0.02,VWS V14.00,2013-05-09 02:17:00,
2013-05-08 22:20:00,63.2,56.6,29.93,WSW,252,1.0,2.0,79,0.00,,---,0.02,VWS V14.00,2013-05-09 02:20:00,
2013-05-08 22:22:00,63.1,56.5,29.93,WSW,252,2.0,3.0,79,0.00,,---,0.02,VWS V14.00,2013-05-09 02:22:00,
2013-05-08 22:25:00,63.1,56.5,29.93,WSW,252,1.0,3.0,79,0.00,,---,0.02,VWS V14.00,2013-05-09 02:25:00,
2013-05-08 22:26:00,63.1,56.1,29.93,WSW,252,2.0,3.0,78,0.00,,---,0.02,VWS V14.00,2013-05-09 02:26:00,
2013-05-08 22:27:00,63.2,56.2,29.93,WSW,252,3.0,3.0,78,0.00,,---,0.02,VWS V14.00,2013-05-09 02:27:00,
2013-05-08 22:30:00,63.3,56.0,29.93,WSW,252,0.0,1.0,77,0.00,,---,0.02,VWS V14.00,2013-05-09 02:30:00,
2013-05-08 22:32:00,63.4,56.1,29.93,WSW,252,0.0,1.0,77,0.00,,---,0.02,VWS V14.00,2013-05-09 02:32:00,
2013-05-08 22:34:00,63.4,56.4,29.93,WSW,252,0.0,1.0,78,0.00,,---,0.02,VWS V14.00,2013-05-09 02:34:00,
2013-05-08 22:35:00,63.5,56.5,29.93,WSW,252,0.0,1.0,78,0.00,,---,0.02,VWS V14.00,2013-05-09 02:35:00,
2013-05-08 22:37:00,63.5,56.5,29.93,WSW,252,0.0,1.0,78,0.00,,---,0.02,VWS V14.00,2013-05-09 02:37:00,
2013-05-08 22:38:00,63.4,56.4,29.93,WSW,252,0.0,1.0,78,0.00,,---,0.02,VWS V14.00,2013-05-09 02:38:00,
2013-05-08 22:39:00,63.4,56.8,29.93,WSW,252,0.0,1.0,79,0.00,,---,0.02,VWS V14.00,2013-05-09 02:39:00,
2013-05-08 22:40:00,63.4,56.8,29.93,WSW,252,0.0,1.0,79,0.00,,---,0.02,VWS V14.00,2013-05-09 02:40:00,
2013-05-08 22:42:00,63.3,56.7,29.93,WSW,252,0.0,1.0,79,0.00,,---,0.02,VWS V14.00,2013-05-09 02:42:00,
2013-05-08 22:43:00,63.3,56.7,29.93,WSW,252,0.0,1.0,79,0.00,,---,0.02,VWS V14.00,2013-05-09 02:43:00,
2013-05-08 22:44:00,63.2,56.6,29.93,WSW,252,0.0,1.0,79,0.00,,---,0.02,VWS V14.00,2013-05-09 02:44:00,
2013-05-08 22:45:00,63.1,56.5,29.93,WSW,252,0.0,1.0,79,0.00,,---,0.02,VWS V14.00,2013-05-09 02:45:00,
2013-05-08 22:47:00,62.9,56.6,29.93,WSW,252,0.0,1.0,80,0.00,,---,0.02,VWS V14.00,2013-05-09 02:47:00,
2013-05-08 22:50:00,62.7,56.5,29.93,WSW,252,0.0,1.0,80,0.00,,---,0.02,VWS V14.00,2013-05-09 02:50:00,
2013-05-08 22:51:00,62.7,56.5,29.93,WSW,252,0.0,1.0,80,0.00,,---,0.02,VWS V14.00,2013-05-09 02:51:00,
2013-05-08 22:52:00,62.6,56.3,29.93,WSW,252,0.0,1.0,80,0.00,,---,0.02,VWS V14.00,2013-05-09 02:52:00,
2013-05-08 22:53:00,62.5,56.2,29.93,WSW,252,0.0,1.0,80,0.00,,---,0.02,VWS V14.00,2013-05-09 02:53:00,
2013-05-08 22:55:00,62.4,56.5,29.93,WSW,252,0.0,1.0,81,0.00,,---,0.02,VWS V14.00,2013-05-09 02:55:00,
2013-05-08 22:56:00,62.3,56.4,29.93,WSW,252,0.0,1.0,81,0.00,,---,0.02,VWS V14.00,2013-05-09 02:56:00,
2013-05-08 22:58:00,62.3,56.4,29.93,WSW,252,0.0,1.0,81,0.00,,---,0.02,VWS V14.00,2013-05-09 02:58:00,
2013-05-08 23:00:00,62.2,56.3,29.93,WSW,252,0.0,1.0,81,0.00,,---,0.02,VWS V14.00,2013-05-09 03:00:00,
2013-05-08 23:01:00,62.1,56.5,29.93,WSW,252,0.0,1.0,82,0.00,,---,0.02,VWS V14.00,2013-05-09 03:01:00,
2013-05-08 23:02:00,62.1,56.5,29.93,WSW,252,0.0,1.0,82,0.00,,---,0.02,VWS V14.00,2013-05-09 03:02:00,
2013-05-08 23:04:00,62.0,56.5,29.93,WSW,252,0.0,1.0,82,0.00,,---,0.02,VWS V14.00,2013-05-09 03:04:00,
2013-05-08 23:06:00,61.9,56.7,29.93,WSW,252,0.0,1.0,83,0.00,,---,0.02,VWS V14.00,2013-05-09 03:06:00,
2013-05-08 23:07:00,61.8,56.6,29.93,WSW,252,0.0,1.0,83,0.00,,---,0.02,VWS V14.00,2013-05-09 03:07:00,
2013-05-08 23:08:00,61.8,56.6,29.93,WSW,252,0.0,1.0,83,0.00,,---,0.02,VWS V14.00,2013-05-09 03:08:00,
2013-05-08 23:09:00,61.7,56.5,29.93,WSW,252,1.0,1.0,83,0.00,,---,0.02,VWS V14.00,2013-05-09 03:09:00,
2013-05-08 23:11:00,61.7,56.5,29.92,WSW,252,0.0,1.0,83,0.00,,---,0.02,VWS V14.00,2013-05-09 03:11:00,
2013-05-08 23:12:00,61.6,56.4,29.92,WSW,252,2.0,2.0,83,0.00,,---,0.02,VWS V14.00,2013-05-09 03:12:00,
2013-05-08 23:13:00,61.5,56.3,29.92,WSW,252,1.0,2.0,83,0.00,,---,0.02,VWS V14.00,2013-05-09 03:13:00,
2013-05-08 23:15:00,61.4,56.5,29.93,WSW,252,0.0,2.0,84,0.00,,---,0.02,VWS V14.00,2013-05-09 03:15:00,
2013-05-08 23:16:00,61.4,56.5,29.93,WSW,252,1.0,2.0,84,0.00,,---,0.02,VWS V14.00,2013-05-09 03:16:00,
2013-05-08 23:18:00,61.3,56.4,29.93,WSW,252,1.0,2.0,84,0.00,,---,0.02,VWS V14.00,2013-05-09 03:18:00,
2013-05-08 23:19:00,61.3,56.4,29.93,WSW,252,0.0,2.0,84,0.00,,---,0.02,VWS V14.00,2013-05-09 03:19:00,
2013-05-08 23:20:00,61.2,56.3,29.93,WSW,252,0.0,2.0,84,0.00,,---,0.02,VWS V14.00,2013-05-09 03:20:00,
2013-05-08 23:21:00,61.2,56.3,29.93,WSW,252,1.0,2.0,84,0.00,,---,0.02,VWS V14.00,2013-05-09 03:21:00,
2013-05-08 23:22:00,61.2,56.3,29.93,WSW,252,1.0,2.0,84,0.00,,---,0.02,VWS V14.00,2013-05-09 03:22:00,
2013-05-08 23:23:00,61.1,56.6,29.93,WSW,252,2.0,3.0,85,0.00,,---,0.02,VWS V14.00,2013-05-09 03:23:00,
2013-05-08 23:24:00,61.1,56.6,29.92,WSW,252,2.0,3.0,85,0.00,,---,0.02,VWS V14.00,2013-05-09 03:24:00,
2013-05-08 23:26:00,61.0,56.5,29.92,WSW,252,2.0,3.0,85,0.00,,---,0.02,VWS V14.00,2013-05-09 03:26:00,
2013-05-08 23:27:00,61.0,56.5,29.92,WSW,252,1.0,3.0,85,0.00,,---,0.02,VWS V14.00,2013-05-09 03:27:00,
2013-05-08 23:28:00,60.9,56.4,29.92,WSW,252,0.0,3.0,85,0.00,,---,0.02,VWS V14.00,2013-05-09 03:28:00,
2013-05-08 23:29:00,60.8,56.3,29.92,WSW,252,0.0,0.0,85,0.00,,---,0.02,VWS V14.00,2013-05-09 03:29:00,
2013-05-08 23:32:00,60.6,56.1,29.92,WSW,252,0.0,0.0,85,0.00,,---,0.02,VWS V14.00,2013-05-09 03:32:00,
2013-05-08 23:33:00,60.6,56.4,29.92,WSW,252,0.0,0.0,86,0.00,,---,0.02,VWS V14.00,2013-05-09 03:33:00,
2013-05-08 23:34:00,60.5,56.3,29.92,WSW,252,0.0,0.0,86,0.00,,---,0.02,VWS V14.00,2013-05-09 03:34:00,
2013-05-08 23:36:00,60.5,56.3,29.92,WSW,252,0.0,0.0,86,0.00,,---,0.02,VWS V14.00,2013-05-09 03:36:00,
2013-05-08 23:37:00,60.4,56.2,29.92,WSW,252,0.0,0.0,86,0.00,,---,0.02,VWS V14.00,2013-05-09 03:37:00,
2013-05-08 23:39:00,60.4,56.2,29.92,WSW,252,0.0,0.0,86,0.00,,---,0.02,VWS V14.00,2013-05-09 03:39:00,
2013-05-08 23:40:00,60.3,56.4,29.92,WSW,252,0.0,0.0,87,0.00,,---,0.02,VWS V14.00,2013-05-09 03:40:00,
2013-05-08 23:42:00,60.2,56.3,29.92,WSW,252,0.0,0.0,87,0.00,,---,0.02,VWS V14.00,2013-05-09 03:42:00,
2013-05-08 23:44:00,60.1,56.2,29.92,WSW,252,0.0,0.0,87,0.00,,---,0.02,VWS V14.00,2013-05-09 03:44:00,
2013-05-08 23:45:00,60.0,56.1,29.92,WSW,252,0.0,0.0,87,0.00,,---,0.02,VWS V14.00,2013-05-09 03:45:00,
2013-05-08 23:46:00,60.0,56.1,29.92,WSW,252,0.0,0.0,87,0.00,,---,0.02,VWS V14.00,2013-05-09 03:46:00,
2013-05-08 23:50:00,59.8,55.9,29.92,WSW,252,0.0,0.0,87,0.00,,---,0.02,VWS V14.00,2013-05-09 03:50:00,
2013-05-08 23:52:00,59.8,55.9,29.92,WSW,252,0.0,0.0,87,0.00,,---,0.02,VWS V14.00,2013-05-09 03:52:00,
2013-05-08 23:55:00,59.6,55.7,29.92,WSW,252,0.0,0.0,87,0.00,,---,0.02,VWS V14.00,2013-05-09 03:55:00,
2013-05-08 23:56:00,59.6,56.0,29.92,WSW,252,0.0,0.0,88,0.00,,---,0.02,VWS V14.00,2013-05-09 03:56:00,
2013-05-08 23:57:00,59.5,56.0,29.92,WSW,252,0.0,0.0,88,0.00,,---,0.02,VWS V14.00,2013-05-09 03:57:00,
2013-05-08 23:58:00,59.5,56.0,29.92,WSW,252,0.0,0.0,88,0.00,,---,0.02,VWS V14.00,2013-05-09 03:58:00,
2013-05-08 23:59:00,59.4,55.8,29.92,WSW,252,0.0,0.0,88,0.00,,---,0.00,VWS V14.00,2013-05-09 03:59:00,